GFSGL_sfc_dewp_000.txt.gz
Dewpoint
29 33 32 29 30 29 30 31 31 33 35 36 37 36 36 35 34 32 31 31 31 31 31 31 30 31 31 32 33 33 32 31 29 29 31 33 34 35 37 39 42 43 44
31 32 31 29 27 28 29 30 31 30 30 30 31 31 31 31 31 30 30 28 28 27 26 28 27 26 27 30 31 30 31 30 29 27 28 29 30 33 35 35 36 41 43
31 29 27 26 25 28 28 28 29 28 28 29 28 29 31 31 29 29 28 27 26 25 26 27 28 28 28 28 28 28 30 29 30 29 29 32 33 33 33 34 34 36 39
32 26 25 26 27 29 28 29 28 28 28 28 29 31 31 30 27 26 25 26 26 25 26 26 27 27 26 26 25 26 26 27 27 27 27 28 30 32 32 31 31 34 33
30 30 32 33 32 31 29 30 32 31 30 30 29 28 27 26 23 28 27 25 25 25 26 25 25 27 28 29 26 25 25 24 23 22 21 22 23 24 26 30 30 31 33
37 39 38 36 36 36 36 36 34 31 28 25 25 25 24 23 32 30 29 26 25 24 24 23 23 25 25 26 27 28 27 24 23 23 23 22 22 24 25 27 30 30 29
39 39 40 40 38 37 36 34 28 25 23 22 22 22 23 25 28 28 28 24 25 25 24 24 23 22 24 24 25 27 28 28 27 25 24 23 24 25 25 25 28 29 29
38 38 37 37 35 31 27 25 22 21 20 20 21 23 23 24 28 27 28 26 25 25 25 25 24 25 25 25 25 25 25 25 25 24 25 26 26 27 27 26 26 26 28
26 26 26 26 25 24 21 20 20 19 19 19 22 24 25 25 27 25 25 23 24 25 26 26 26 25 27 28 27 28 26 27 28 29 30 29 29 30 30 28 27 26 25
26 24 24 25 23 21 20 20 19 18 19 23 25 24 24 23 25 24 24 25 24 24 24 24 25 25 27 27 26 26 26 26 26 26 26 28 30 30 31 30 30 27 25
25 25 24 24 22 21 19 18 18 19 22 17 16 19 21 23 22 25 24 24 25 24 24 24 25 26 27 29 28 27 27 27 27 28 27 27 27 28 28 30 31 30 28
25 24 24 24 23 19 18 18 19 21 19 17 12 15 19 18 23 24 24 24 25 26 25 26 27 28 29 30 30 29 28 28 28 28 27 26 27 27 28 28 29 31 31
25 25 25 24 22 19 18 19 19 19 17 16 19 16 19 22 22 24 24 25 27 27 27 27 27 25 25 27 27 28 28 28 27 26 25 24 27 28 28 29 27 29 29
24 25 25 24 22 20 21 19 19 16 15 21 19 19 21 21 21 22 25 27 27 28 25 24 23 23 22 22 23 24 26 27 27 27 25 25 26 28 28 28 25 28 28
25 25 25 24 21 21 21 20 21 20 19 18 17 23 20 18 21 27 26 27 28 26 25 20 20 19 19 20 21 22 24 26 26 27 27 26 26 26 27 27 28 29 28
24 24 22 21 20 20 20 21 23 23 22 22 23 23 22 23 27 26 26 28 26 26 23 19 18 18 18 19 19 19 21 23 25 22 19 22 23 25 25 27 28 28 26
22 24 22 21 20 19 17 18 13 17 21 22 21 21 22 25 25 25 25 25 24 23 22 20 18 18 18 19 19 19 19 21 24 24 27 27 27 25 29 27 27 26 24
18 19 19 20 18 18 10 11 10 9 7 11 19 20 21 23 23 23 22 20 18 19 19 19 18 18 19 19 18 18 18 19 20 21 22 24 25 24 21 23 23 22 21
24 19 14 16 16 12 10 10 8 7 8 9 11 18 19 21 21 20 19 16 16 15 16 16 17 17 17 19 18 16 15 17 18 18 19 20 21 17 19 19 18 18 17
23 20 18 18 16 16 14 10 11 8 8 8 9 16 17 17 14 15 14 14 13 14 14 14 15 15 15 15 16 17 15 16 16 16 17 17 18 18 18 20 17 15 16
19 22 23 22 15 17 11 9 9 6 5 7 13 15 17 15 14 14 13 13 12 11 12 12 12 12 13 14 14 15 17 16 16 15 14 15 16 16 16 15 14 15 17
16 21 22 14 16 10 9 12 6 7 4 8 14 14 16 14 14 13 13 12 13 12 12 10 10 11 12 12 13 12 13 16 16 12 10 11 10 11 13 14 13 10 12
14 15 15 17 12 9 7 7 5 3 6 8 10 13 12 12 13 13 13 13 12 11 10 9 7 8 10 11 12 13 14 15 17 12 9 10 11 10 9 10 9 12 13
19 14 16 13 6 7 7 6 6 10 10 8 7 10 10 10 11 13 13 13 12 10 9 7 7 6 7 8 10 12 13 13 13 13 10 9 11 10 10 10 11 12 13
23 23 18 10 6 8 6 3 3 8 11 8 7 10 12 10 12 12 13 12 10 8 7 7 6 6 5 6 7 7 8 9 8 9 10 6 5 6 5 8 7 12 15
25 24 19 8 9 10 9 4 2 8 9 7 6 7 11 12 11 11 11 11 10 9 7 6 6 5 5 6 7 7 6 5 7 6 6 7 4 2 1 1 1 1 1

GFSGL_sfc_dewp_003.txt.gz
Dewpoint
31 32 33 34 31 30 31 32 34 36 36 35 34 35 38 38 37 36 34 32 32 31 30 30 29 30 30 30 32 32 31 31 29 28 30 33 33 32 33 37 40 39 42
34 33 33 33 30 28 30 30 32 30 30 30 30 31 32 32 31 30 30 29 28 27 27 27 27 25 27 29 30 30 30 31 30 29 29 30 30 33 34 35 36 37 38
34 32 29 28 26 27 28 30 29 28 27 28 27 28 29 30 29 28 28 27 27 27 27 27 28 28 28 28 28 28 28 28 29 28 27 31 32 32 32 33 34 34 34
34 29 25 24 26 28 28 30 32 32 29 29 29 30 30 28 26 26 26 25 25 25 26 25 25 25 25 25 25 25 25 26 27 27 25 26 29 29 30 30 30 32 32
36 31 32 33 32 32 36 37 35 34 32 31 30 27 26 25 24 27 25 25 24 24 25 25 24 25 26 26 25 25 26 25 24 23 21 20 21 23 25 25 26 28 31
37 38 39 39 39 39 38 38 37 37 35 28 25 24 24 23 32 29 29 26 25 24 23 23 23 24 25 25 25 25 26 24 23 22 22 21 21 22 23 23 25 25 25
37 38 39 38 39 38 38 37 36 29 25 23 23 24 25 25 28 28 28 26 25 24 24 24 23 23 25 23 25 25 27 27 26 25 24 23 22 23 25 26 26 26 26
34 29 29 31 30 29 27 24 23 22 21 21 23 25 25 25 27 27 27 24 24 24 24 24 24 25 25 24 24 25 24 24 25 25 25 25 26 26 26 26 25 25 26
26 26 26 28 25 24 22 21 21 20 20 22 25 25 24 23 25 24 23 21 22 22 24 24 24 24 26 27 25 26 25 25 27 28 28 28 28 29 29 28 27 27 24
27 26 25 25 24 22 21 19 19 20 22 24 23 23 23 21 24 24 23 23 23 23 23 23 24 24 26 25 25 26 25 24 24 24 26 27 30 29 30 29 30 26 25
25 25 24 25 24 22 19 20 20 22 22 18 16 18 20 22 22 24 24 24 23 23 23 23 25 26 27 27 29 28 27 26 26 25 25 28 27 27 28 29 30 30 28
24 24 24 25 22 19 20 20 20 20 19 16 12 15 18 17 23 23 24 24 24 25 24 27 26 25 25 24 25 28 27 29 27 26 26 26 27 27 27 28 29 30 30
24 24 24 24 22 20 20 19 19 19 17 16 20 18 19 21 20 22 23 24 26 26 28 24 23 23 23 23 23 25 24 26 26 25 25 25 26 26 27 27 29 30 30
23 24 25 23 21 21 20 20 19 17 16 20 18 18 20 18 18 20 25 25 26 28 25 24 21 22 20 21 22 23 24 24 24 24 25 25 27 27 28 28 28 28 28
24 24 23 23 22 21 20 21 22 21 18 18 16 20 19 17 19 25 25 25 27 26 23 21 20 18 17 18 19 19 20 22 22 24 25 26 26 26 26 26 27 26 27
24 24 22 20 20 21 19 20 22 22 22 21 21 20 21 22 24 25 25 26 26 24 22 19 16 16 15 17 16 16 17 19 20 22 21 22 22 23 22 24 27 27 26
21 23 21 20 21 20 18 17 10 15 19 20 20 19 19 21 23 24 23 24 23 20 18 17 16 14 16 17 16 16 16 18 19 20 21 25 26 24 25 25 26 27 25
17 17 14 14 14 16 10 11 5 6 5 11 16 18 19 21 22 22 21 19 16 16 16 16 14 15 15 15 16 15 14 14 16 17 18 19 20 21 23 24 25 22 19
25 19 11 12 11 10 12 7 5 5 7 8 9 14 17 19 19 19 18 13 12 13 13 14 14 14 14 13 13 14 11 12 11 12 14 15 15 19 19 18 19 18 19
22 19 15 18 12 12 10 7 10 6 5 7 5 11 15 15 13 13 13 12 11 11 11 12 12 12 12 12 12 12 14 14 13 13 12 12 12 12 12 18 15 13 15
19 19 22 18 14 12 7 7 6 3 3 6 5 10 15 13 12 12 12 11 11 10 10 9 10 10 11 12 12 11 12 13 13 10 10 10 7 8 12 10 9 10 12
14 18 20 12 11 7 7 7 4 4 7 7 6 10 14 11 12 12 12 10 10 10 10 9 8 9 9 10 10 10 11 12 14 10 7 7 7 7 8 7 9 8 10
14 12 12 13 9 5 4 5 3 2 7 4 6 9 10 9 9 11 11 12 11 9 9 7 6 6 7 9 10 10 10 10 11 11 4 5 7 7 3 6 6 9 8
16 16 18 12 3 3 -0 -1 -1 3 9 4 3 3 8 7 8 10 11 10 9 8 8 6 6 5 6 6 7 8 9 10 9 8 4 3 5 5 5 7 7 8 10
22 23 20 7 3 2 -2 -1 -2 -2 4 3 3 4 9 8 9 9 9 9 9 7 7 7 6 5 5 4 4 4 4 5 5 5 6 3 1 1 -0 0 -4 3 5
24 23 21 8 8 4 -2 -3 -3 -3 3 3 3 4 5 8 8 8 9 9 7 7 7 6 5 4 4 6 5 5 2 2 4 2 3 4 1 -1 -3 -3 -4 -4 -4

GFSGL_sfc_dewp_006.txt.gz
Dewpoint
33 35 35 35 34 33 32 32 33 36 36 33 33 34 35 37 37 37 36 35 33 32 31 30 29 29 29 30 31 31 31 31 29 28 30 31 33 34 33 35 38 38 40
35 35 35 33 29 29 30 31 32 30 29 29 30 30 31 30 31 31 30 29 28 27 27 27 27 26 28 29 30 29 30 30 29 27 30 30 31 33 35 35 35 36 37
36 35 30 27 26 28 28 31 32 32 31 30 29 29 30 31 30 28 27 27 26 27 27 26 27 26 26 26 26 26 27 27 28 28 26 30 30 32 32 33 34 35 35
37 34 32 31 29 32 35 35 35 34 33 32 33 32 32 28 26 26 26 26 25 24 25 24 24 24 23 23 23 23 24 25 25 25 24 25 28 29 30 28 29 32 30
37 37 35 37 37 36 36 37 36 36 36 37 36 30 27 25 23 26 25 24 24 24 24 23 23 24 25 25 23 24 24 25 25 25 24 23 23 24 25 25 26 27 29
37 37 39 39 39 37 37 37 37 36 36 37 32 24 24 23 30 29 29 27 26 24 23 23 23 25 25 26 26 26 25 24 23 22 22 21 21 21 22 22 24 24 22
36 31 31 33 35 35 36 36 34 30 25 23 23 24 25 25 28 28 27 26 25 25 23 23 23 22 24 24 25 25 25 26 25 25 25 24 23 23 23 25 25 24 23
29 30 31 30 28 26 24 23 23 22 21 21 23 25 24 22 25 25 25 24 23 23 23 23 23 24 24 24 24 25 25 25 24 23 24 25 25 25 25 24 25 26 27
31 31 30 25 24 24 22 21 21 20 21 23 25 23 21 21 24 24 24 22 22 22 23 24 24 23 25 26 26 26 25 25 26 27 27 28 27 28 28 26 26 26 25
27 25 24 25 24 22 20 20 20 21 23 22 20 21 21 21 23 24 23 22 22 24 23 24 24 24 26 27 26 26 25 25 25 26 26 25 27 29 30 29 29 26 25
24 24 24 24 23 20 20 20 20 21 21 17 15 18 20 21 21 24 23 23 24 24 24 23 25 27 25 24 24 25 25 25 28 28 27 26 28 27 29 30 30 29 27
24 23 23 24 22 20 20 20 19 19 18 16 12 15 18 16 22 22 22 23 25 25 24 25 26 24 23 23 23 24 24 25 25 26 26 25 26 26 27 28 28 29 29
23 22 23 24 22 20 20 19 19 19 16 16 20 18 18 21 19 21 22 24 26 25 27 28 26 22 21 21 22 24 24 23 23 24 25 25 26 27 29 30 30 29 30
23 23 23 23 22 20 20 20 20 17 16 19 18 17 19 18 18 19 24 24 25 27 26 25 23 22 19 19 21 21 21 22 22 23 24 26 28 28 28 29 28 28 28
23 24 24 23 22 22 21 19 22 21 18 19 16 16 18 16 19 24 24 24 25 25 25 22 19 17 16 17 17 17 19 20 20 22 23 24 25 26 26 28 28 28 27
24 24 21 20 19 21 19 19 21 21 21 20 20 19 19 20 23 23 24 25 25 23 21 18 17 15 14 16 16 15 16 16 18 20 21 23 23 24 24 25 26 26 25
20 21 19 19 18 17 16 16 11 14 19 18 19 19 18 19 22 22 22 22 22 19 16 16 15 14 14 14 15 15 14 15 17 18 19 20 21 24 24 24 25 26 26
16 16 17 15 13 13 6 9 6 5 5 9 15 17 17 19 21 20 19 17 14 15 14 14 13 13 14 13 13 13 14 14 14 14 16 17 17 20 20 21 23 22 22
24 19 10 8 8 8 6 6 4 4 4 8 12 12 13 16 17 17 16 12 11 11 12 12 12 12 12 13 12 12 12 13 13 11 13 13 14 17 21 18 17 16 18
22 19 13 13 11 10 8 6 8 6 7 11 8 9 13 13 11 11 12 11 10 10 10 10 11 11 11 12 12 12 12 12 13 12 10 10 10 12 13 15 13 14 15
17 17 17 15 12 10 6 5 4 6 9 10 5 6 13 12 10 11 10 10 9 9 9 9 9 9 10 10 10 9 10 12 13 12 9 10 6 9 12 12 12 13 14
19 14 14 11 10 6 5 5 1 4 7 7 6 8 12 9 9 10 11 9 9 10 9 8 7 8 8 8 8 8 8 9 10 10 9 8 8 8 8 9 10 10 12
21 14 11 12 7 4 1 1 -2 -4 2 1 3 7 8 8 8 10 10 8 9 8 8 7 6 5 7 6 7 8 7 7 7 5 6 4 7 6 7 9 9 10 10
15 15 17 9 -0 1 -4 -5 -6 -3 3 -0 -1 1 5 7 7 8 8 7 8 7 7 6 6 5 5 5 5 5 5 6 5 5 -1 2 4 4 4 7 8 8 9
22 23 14 6 2 2 -1 -4 -7 -9 -7 -4 -3 0 5 6 9 9 8 8 8 7 7 6 5 5 6 5 4 2 1 2 2 1 4 1 -0 -0 -1 1 0 4 4
24 24 20 10 3 3 4 0 -4 -9 -7 -3 -4 -1 2 4 7 7 10 10 9 8 8 7 6 5 5 6 5 4 -1 -1 0 -1 -0 3 0 -1 -2 -1 -2 1 1

GFSGL_sfc_dewp_009.txt.gz
Dewpoint
37 38 39 38 34 31 33 35 36 38 36 33 32 33 34 34 34 35 35 34 33 32 32 31 29 29 28 28 28 26 25 24 22 22 23 26 28 28 27 30 32 32 33
38 38 37 33 30 31 33 33 35 33 32 32 32 35 35 34 33 31 30 29 27 26 26 27 25 22 27 28 27 28 27 27 25 24 24 25 28 29 30 31 29 30 34
38 38 34 33 31 37 37 38 38 37 36 37 37 38 37 32 29 28 27 27 27 27 27 27 26 26 25 24 24 23 23 21 23 22 22 23 24 26 26 27 28 31 29
38 37 36 36 36 37 38 38 38 37 36 36 36 36 37 33 27 25 25 26 27 26 26 25 24 23 22 22 20 21 20 21 21 21 20 20 21 23 24 24 26 28 28
38 38 38 39 38 38 35 34 35 35 34 35 36 34 27 25 22 28 26 26 26 26 25 23 23 24 25 24 22 22 22 22 21 21 20 21 21 22 23 24 24 27 28
38 32 31 31 31 32 33 34 34 31 27 25 24 24 26 23 30 30 29 26 25 23 22 22 21 23 23 25 26 26 25 23 21 21 20 20 19 20 20 21 23 23 22
31 29 30 32 28 27 25 24 24 24 24 23 24 25 25 24 24 25 25 22 22 22 21 20 19 18 23 22 24 24 25 25 25 24 23 23 22 22 22 23 24 24 23
30 31 32 28 25 25 24 23 22 22 22 22 24 23 21 19 23 24 24 23 24 23 21 21 21 22 23 23 22 23 23 24 24 23 23 23 22 23 23 24 25 25 26
29 29 25 25 24 24 22 21 22 22 22 22 20 20 20 20 22 23 24 25 24 23 22 22 22 22 24 26 25 26 26 23 23 26 27 28 29 28 27 26 27 27 26
26 24 24 24 23 22 22 21 21 21 20 20 19 20 21 23 22 23 23 23 24 22 23 23 24 24 26 28 28 27 25 21 21 26 26 25 28 29 30 31 29 26 24
25 24 22 22 23 23 21 21 20 19 23 25 25 25 24 22 23 22 22 24 24 24 23 23 26 28 28 25 24 25 24 23 24 25 24 24 26 28 27 26 29 30 27
25 23 22 23 23 20 20 20 19 21 23 24 24 24 22 24 21 21 21 23 24 26 24 26 29 26 24 22 22 23 24 25 26 25 25 25 26 27 26 26 26 28 30
24 24 23 23 22 21 20 20 19 20 22 22 20 20 19 20 21 20 22 24 22 25 28 26 24 24 22 20 20 22 23 24 24 24 24 25 28 28 29 31 31 29 30
23 24 24 24 23 23 22 22 20 23 22 20 20 19 18 17 19 21 23 23 22 26 26 25 24 22 20 20 20 21 22 23 22 23 24 25 28 29 28 29 29 29 29
23 23 24 25 24 22 23 21 22 24 22 21 19 19 19 19 20 23 23 23 25 24 25 23 20 19 17 18 19 19 20 21 21 23 24 25 26 27 26 28 28 28 28
23 24 26 25 24 22 19 20 21 21 22 19 19 20 20 19 22 22 22 23 23 22 20 18 18 18 18 17 17 18 19 19 19 21 23 24 25 26 26 27 27 27 27
26 26 25 23 23 22 22 21 20 20 19 18 18 18 17 18 20 20 20 20 20 19 17 17 16 16 17 16 16 17 17 19 20 20 21 22 24 26 28 27 27 27 27
26 22 25 24 24 23 23 22 20 20 19 18 17 16 17 17 18 18 18 16 15 15 15 15 15 15 16 15 15 16 17 19 19 19 20 21 22 25 26 26 26 27 28
27 25 26 25 25 23 23 22 21 20 19 17 16 15 15 15 15 15 15 14 12 12 12 13 14 14 15 15 17 17 18 19 19 19 20 19 21 22 23 24 25 23 24
26 24 21 25 24 23 22 21 20 19 18 17 15 15 15 13 14 14 14 14 13 12 12 12 12 13 14 15 16 16 17 18 18 19 19 20 21 21 21 22 23 24 22
25 25 21 24 23 23 22 21 20 19 18 17 16 16 14 13 13 13 12 12 10 9 10 10 12 13 13 14 14 15 15 17 16 17 18 19 20 20 20 21 22 21 20
26 25 25 24 24 23 22 20 19 18 18 17 16 15 13 14 13 13 12 11 11 11 10 10 10 11 11 11 12 14 15 14 15 15 17 18 19 20 20 20 20 21 20
26 26 25 24 23 20 22 20 19 19 18 18 17 15 15 14 14 13 12 12 11 11 11 10 10 9 10 11 12 12 12 13 13 13 15 18 18 19 20 19 18 18 18
26 26 25 25 24 22 22 22 20 15 17 18 18 17 15 15 14 14 13 13 12 11 11 10 10 9 9 10 10 10 9 10 12 13 13 14 15 16 17 17 17 17 17
26 26 27 26 24 23 21 22 21 19 19 19 19 18 16 15 14 14 15 14 12 12 10 10 9 9 9 8 9 7 5 4 7 7 13 13 12 12 12 13 14 15 14
26 27 27 27 25 23 22 22 22 20 19 19 19 18 17 15 14 14 14 14 13 12 10 10 10 8 8 8 7 7 5 4 5 4 11 12 11 11 12 11 11 13 12

GFSGL_sfc_dewp_012.txt.gz
Dewpoint
39 39 39 38 35 35 36 36 37 37 34 33 33 35 37 39 39 38 36 33 31 30 29 27 26 26 25 24 25 25 24 23 21 21 20 23 26 27 27 29 29 30 30
37 37 36 36 35 35 36 36 37 36 36 35 37 39 40 39 37 34 33 30 27 26 26 25 23 18 25 25 24 25 24 25 23 23 22 22 25 27 28 29 25 23 27
35 34 34 36 36 36 36 36 37 36 36 38 38 38 38 37 35 32 31 29 27 26 25 24 24 25 25 24 24 24 23 19 22 21 21 22 22 23 24 26 27 28 24
35 34 34 37 37 37 35 34 34 34 33 33 33 32 31 27 25 25 24 26 26 24 26 27 26 25 24 23 22 21 19 20 20 20 19 19 20 22 22 22 23 25 25
35 34 34 34 32 31 31 30 30 30 26 25 25 25 25 24 22 28 26 25 25 24 25 23 25 25 26 25 22 22 21 21 20 19 19 19 20 21 21 22 23 25 26
34 33 31 31 30 29 29 28 26 23 23 24 24 24 25 20 26 25 25 23 22 21 21 21 21 24 24 26 25 25 25 24 22 21 21 21 21 21 22 22 24 24 23
32 30 29 30 29 27 24 20 21 23 24 24 24 24 24 24 24 24 24 21 21 21 22 20 18 15 23 21 25 27 25 25 26 24 22 22 21 22 23 24 25 25 24
30 29 29 27 26 23 20 20 23 23 23 23 24 23 23 20 23 23 23 23 23 23 21 20 20 20 22 23 22 22 23 24 25 25 26 23 23 23 24 24 25 26 28
28 28 27 26 24 19 19 22 23 23 23 22 22 22 22 22 24 23 23 24 23 23 21 21 22 23 25 25 26 27 24 24 25 28 28 28 28 28 28 26 29 27 28
27 28 26 25 22 19 22 23 24 22 21 22 24 24 24 25 23 22 22 23 25 24 24 23 25 25 27 27 29 28 25 22 23 24 23 25 32 28 28 29 29 28 26
26 27 26 24 21 21 23 24 23 22 24 28 29 27 26 24 23 21 21 23 25 23 23 24 25 29 28 25 25 25 25 25 23 24 24 24 25 26 28 30 30 31 28
30 29 26 23 21 20 23 23 23 23 25 27 29 28 24 28 20 20 21 22 25 26 25 25 30 25 25 23 22 23 23 24 26 28 28 27 27 27 26 28 29 29 30
31 27 25 24 23 23 23 24 22 22 25 25 21 22 20 21 21 21 23 23 23 25 27 27 25 24 24 23 23 22 23 27 26 26 26 27 28 29 30 32 31 28 29
28 25 25 24 24 24 23 22 20 23 24 21 20 19 19 19 20 21 23 23 23 26 25 28 25 24 25 25 23 23 25 25 24 25 25 26 28 30 30 30 30 31 30
23 23 24 26 25 24 22 20 22 23 23 21 19 19 21 20 20 22 23 23 24 23 24 25 23 22 23 21 21 21 23 23 24 25 26 26 26 28 29 29 28 29 29
24 24 27 27 27 25 21 20 23 22 20 19 18 20 20 18 20 21 21 22 22 22 22 21 21 21 21 20 20 21 22 22 22 24 26 26 25 27 28 30 27 28 29
28 28 27 26 25 24 23 22 21 22 20 19 17 17 17 18 18 18 19 20 20 20 19 19 19 20 20 19 19 20 20 21 23 23 24 24 25 26 29 30 30 29 28
29 27 27 26 25 25 24 23 23 22 21 21 18 15 16 16 16 16 17 18 17 17 17 17 18 18 18 17 18 19 19 21 21 21 22 23 24 25 26 27 28 30 29
25 25 29 28 27 26 25 24 23 21 21 19 18 14 16 16 16 16 16 17 16 15 15 15 17 17 16 16 19 19 21 21 21 23 22 22 23 24 23 24 26 27 28
23 25 26 25 25 24 23 22 21 21 20 19 17 16 16 16 17 17 17 17 15 13 13 12 14 15 16 17 18 19 19 20 20 20 22 23 23 24 23 22 23 24 24
24 23 25 24 23 23 23 22 22 21 20 19 19 19 14 16 16 16 14 14 12 12 13 12 14 16 16 16 16 17 17 19 18 19 20 21 24 23 23 23 23 23 21
26 27 25 24 24 24 24 22 22 21 20 19 20 18 14 18 16 15 14 14 14 13 13 13 13 13 14 14 15 16 16 17 17 18 19 21 21 22 23 22 22 22 21
25 27 26 24 26 24 25 24 23 23 22 21 20 18 18 18 17 16 15 15 14 14 13 13 13 12 13 14 15 14 14 15 16 17 17 18 18 20 21 21 19 20 19
26 28 26 27 27 25 25 24 24 22 22 21 21 21 19 19 18 17 18 17 15 14 14 13 11 10 11 12 13 12 11 13 14 15 16 16 16 17 19 18 18 18 18
29 29 29 28 27 26 25 25 24 24 23 23 21 21 20 20 18 18 18 18 16 15 12 12 12 10 10 9 10 10 10 9 10 9 16 15 14 14 15 16 17 16 16
28 28 29 29 28 27 25 24 24 24 23 23 22 22 21 19 18 18 17 15 15 14 11 12 12 10 10 9 8 8 7 8 9 9 14 13 13 13 14 13 13 15 14

GFSGL_sfc_dewp_015.txt.gz
Dewpoint
37 37 38 37 36 35 35 36 37 37 37 36 36 37 39 38 38 39 39 38 37 35 33 31 30 29 27 27 27 28 27 26 24 24 24 27 30 31 27 32 31 33 33
35 34 33 33 34 34 35 36 36 37 36 37 39 39 37 37 37 38 37 34 33 33 33 31 29 23 25 25 24 24 24 24 23 23 23 25 27 29 30 31 25 22 29
32 30 31 32 33 35 36 35 33 32 32 32 33 35 34 33 28 26 25 27 26 27 27 26 24 24 24 24 24 24 22 19 23 22 21 23 24 25 26 27 28 31 24
29 30 31 32 32 33 32 31 30 28 26 24 23 24 25 23 22 23 24 24 24 23 25 24 24 24 24 24 23 23 21 21 21 21 21 21 22 22 24 24 25 27 27
30 30 31 31 31 31 31 28 27 25 22 21 22 23 24 22 20 26 24 23 23 22 23 21 24 26 28 26 21 22 22 21 20 21 21 21 21 22 22 23 25 27 28
29 29 29 30 31 31 29 27 23 22 21 23 23 23 23 18 27 25 24 22 20 20 21 21 21 25 25 29 29 29 25 21 20 20 21 21 21 23 24 24 26 25 25
28 27 28 31 31 28 25 20 20 22 23 23 23 22 22 23 24 24 25 22 21 21 22 21 19 16 24 20 24 28 27 28 27 24 22 22 22 24 24 25 26 26 26
26 27 30 30 29 25 23 20 22 22 23 23 23 23 24 22 26 25 24 22 22 22 21 21 21 20 21 24 23 24 24 24 25 26 26 24 24 24 24 24 25 26 28
25 23 26 29 28 24 22 21 22 22 23 22 22 24 24 25 27 26 23 23 22 21 20 22 22 22 25 26 25 26 24 24 26 28 29 30 29 30 29 26 27 29 28
26 22 25 26 25 24 22 22 23 22 21 23 25 25 26 26 27 24 24 24 24 23 23 21 25 26 27 29 29 29 27 23 22 24 26 24 28 30 30 30 27 25 26
25 26 29 32 29 24 22 23 22 22 25 30 31 29 26 27 25 24 22 24 23 25 23 24 26 29 27 26 25 26 25 26 24 23 23 24 25 25 26 30 31 30 28
32 32 34 33 27 22 23 23 22 22 25 28 32 30 26 30 24 23 22 22 25 25 24 26 29 26 24 25 24 24 24 23 25 26 28 28 29 28 27 28 30 34 33
34 34 34 28 26 22 22 22 21 22 24 26 22 24 22 24 23 21 21 22 22 25 27 26 27 27 26 25 27 24 24 27 28 27 26 27 29 30 29 30 31 33 34
28 28 27 25 24 24 21 19 19 24 24 22 21 19 20 20 22 20 22 23 22 23 23 24 27 26 26 28 28 27 28 28 26 27 27 27 29 29 31 32 30 30 31
26 24 25 25 24 24 22 21 22 24 24 21 19 19 21 20 19 20 22 22 23 22 23 26 24 22 22 24 24 25 26 24 25 26 27 27 28 28 31 32 28 29 30
27 25 27 27 27 25 21 21 24 23 21 19 17 20 20 17 19 19 20 20 22 22 23 21 21 21 21 22 22 22 23 23 22 24 26 26 26 27 29 30 28 27 27
26 26 25 26 26 24 24 24 23 24 24 22 19 18 16 16 17 17 18 18 22 20 20 20 20 20 20 20 21 21 21 22 23 23 24 25 25 26 29 28 30 30 28
26 27 28 28 26 26 26 24 24 24 24 23 25 17 15 17 17 16 17 18 18 18 18 18 18 19 17 15 17 18 21 22 22 23 24 25 25 26 26 26 28 27 27
23 25 28 29 29 27 27 26 25 24 23 21 21 19 17 17 21 20 17 17 16 16 15 16 18 15 16 16 19 20 22 22 22 23 23 24 24 25 25 25 25 26 25
22 27 26 26 28 27 25 25 24 23 22 21 21 20 17 17 19 20 19 18 15 13 13 12 13 15 17 16 19 20 21 21 20 20 22 24 25 25 24 24 24 24 24
24 25 27 25 27 25 24 25 24 24 23 21 22 23 15 17 19 18 17 17 14 13 14 13 15 15 15 16 15 17 17 19 19 18 19 22 24 24 24 24 24 24 22
24 27 28 28 26 27 26 24 25 24 24 22 22 22 17 22 19 18 17 17 17 15 14 14 14 13 13 14 14 15 15 15 16 18 18 20 21 21 23 23 22 23 22
27 28 27 27 28 26 27 27 26 26 25 25 23 21 21 20 20 19 19 19 17 16 15 14 14 12 13 14 15 13 12 12 13 16 17 19 18 18 21 20 19 19 20
27 28 27 28 30 28 28 28 27 26 26 25 25 24 22 20 20 19 20 20 19 18 16 15 13 11 11 12 13 13 11 11 12 11 15 18 15 15 17 16 17 17 17
31 29 29 29 29 30 28 27 27 27 27 26 26 24 23 21 19 19 19 18 18 17 14 14 14 12 11 11 10 10 8 8 10 11 15 15 14 14 16 14 15 16 15
29 28 29 30 29 30 30 27 26 26 26 26 26 25 24 21 19 19 18 17 16 15 14 13 13 11 11 11 9 9 7 7 8 9 14 12 12 12 12 13 12 14 13

GFSGL_sfc_dewp_018.txt.gz
Dewpoint
38 39 39 39 38 39 39 38 38 38 36 37 37 39 38 38 38 38 39 37 37 35 37 36 35 34 32 31 31 34 35 33 31 30 27 27 29 32 28 30 31 32 35
37 36 35 36 36 38 37 37 37 36 36 35 34 33 34 36 36 37 35 35 34 33 33 33 33 29 29 29 28 27 28 27 26 23 25 26 26 27 28 29 27 24 28
32 31 32 34 35 35 35 36 36 34 33 31 28 27 27 28 26 27 27 28 26 25 25 25 26 26 26 27 27 26 26 23 25 24 23 24 25 25 25 26 26 28 28
31 30 31 35 34 34 34 34 34 32 29 27 27 27 28 25 24 26 25 26 25 23 25 24 24 24 25 26 25 26 23 23 22 22 21 21 22 23 25 23 25 27 27
32 30 33 34 33 34 35 34 33 31 27 27 26 27 27 25 22 26 25 24 24 23 23 22 23 26 30 28 21 23 22 22 22 22 21 22 22 23 24 26 26 28 29
32 31 31 33 33 34 34 34 32 28 27 27 27 26 27 20 27 26 26 24 23 22 21 21 23 26 26 29 30 30 26 21 20 20 20 20 21 22 24 24 25 24 24
33 31 32 34 32 34 32 29 27 27 27 27 27 26 26 27 28 27 26 23 22 21 21 21 21 20 25 23 26 27 30 30 28 24 23 23 21 22 23 23 24 25 25
28 28 31 33 32 31 30 29 28 27 27 26 26 26 26 24 30 28 27 23 22 22 21 20 21 22 23 24 24 24 25 25 26 25 28 28 26 25 25 29 29 29 27
24 30 32 34 29 31 30 29 27 26 26 26 26 27 26 26 29 29 30 24 24 22 21 22 22 21 24 27 26 26 26 25 26 28 31 31 30 30 30 28 25 24 22
30 33 33 34 36 35 35 30 27 26 25 29 28 28 29 27 29 28 27 25 22 22 23 23 24 25 29 27 27 27 25 24 23 24 25 24 25 25 30 30 28 25 23
30 32 32 34 35 35 33 27 26 26 28 30 29 29 27 27 26 26 26 25 23 22 22 22 23 27 29 28 25 25 24 25 25 23 23 23 24 25 26 27 28 29 27
28 30 32 37 36 30 28 27 26 25 27 27 25 25 26 26 25 23 26 21 21 23 22 24 26 24 27 26 25 26 27 25 24 24 24 26 28 29 31 30 30 31 31
28 29 30 31 29 28 27 25 23 25 26 25 24 23 21 23 22 22 20 20 21 22 24 24 25 28 26 26 27 28 27 26 26 26 25 27 28 28 28 28 29 31 32
27 27 26 26 26 26 24 23 23 26 25 24 22 20 19 20 19 19 20 21 21 22 22 22 25 25 25 25 27 27 27 28 26 26 26 27 29 29 27 29 32 29 28
27 27 28 29 28 26 24 24 26 26 24 23 22 21 18 16 17 18 19 20 21 22 21 24 22 21 21 22 23 23 25 25 24 25 25 26 26 27 26 29 28 26 27
27 27 27 28 28 26 25 24 26 25 22 21 19 19 19 18 18 18 18 19 21 21 21 20 19 19 19 21 21 21 22 23 23 24 25 25 25 25 26 29 29 25 24
25 25 25 28 29 27 27 26 25 27 27 25 22 21 20 17 18 18 18 18 23 21 19 18 18 19 18 17 18 20 20 23 22 23 24 24 23 24 26 26 27 26 27
26 26 29 29 29 28 27 26 27 26 23 25 26 23 16 18 18 20 19 17 17 18 17 17 17 18 16 16 17 18 19 21 20 21 22 22 22 24 25 24 25 25 26
25 26 28 28 30 28 28 28 27 26 25 24 23 22 18 17 19 20 19 17 16 14 14 14 16 16 16 16 17 17 18 19 19 19 19 21 23 24 23 24 24 22 23
25 25 26 27 28 28 28 26 26 26 25 24 23 21 18 15 16 15 17 16 12 13 14 14 15 16 16 16 16 16 16 17 17 17 17 19 22 23 23 23 23 23 23
26 27 27 28 26 28 27 26 27 26 25 24 24 19 10 14 16 14 15 17 13 11 11 14 15 14 15 14 14 14 14 14 14 15 15 17 19 19 22 23 21 23 21
26 26 28 28 28 28 28 26 26 26 26 25 25 21 15 16 16 15 19 15 16 12 12 12 14 14 14 13 14 13 12 10 10 11 12 14 17 16 19 19 19 14 20
26 28 27 27 28 28 27 27 27 27 27 25 24 24 23 23 16 15 14 18 18 16 11 11 11 12 13 12 13 13 11 9 10 10 9 11 16 14 16 15 16 13 10
27 28 27 27 28 28 28 28 28 26 26 26 26 25 23 23 16 14 14 16 12 14 13 9 11 12 12 11 11 10 10 8 9 10 9 12 14 13 14 13 11 14 7
28 29 28 28 28 28 29 28 28 27 27 27 27 26 24 23 19 17 14 13 12 11 11 7 9 10 11 11 10 9 7 8 7 7 9 12 10 9 9 11 8 12 6
29 29 28 28 28 28 28 28 28 27 26 26 27 26 25 22 18 18 14 12 12 10 9 8 7 6 8 11 9 9 7 7 7 7 9 12 10 9 6 7 6 8 7

GFSGL_sfc_dewp_021.txt.gz
Dewpoint
35 35 33 33 34 37 37 36 35 35 35 35 36 35 36 36 36 36 36 36 36 36 34 33 33 35 34 34 34 33 32 34 32 30 32 30 28 30 31 37 39 39 39
33 32 31 32 33 35 35 35 34 34 33 33 32 29 29 28 30 31 31 28 28 26 26 26 26 24 27 28 29 28 28 27 26 24 25 25 24 25 27 26 26 26 31
31 30 29 31 33 33 32 34 33 32 31 28 27 27 28 29 27 27 28 27 26 26 25 24 23 23 23 24 25 27 27 25 25 23 22 23 23 25 23 25 25 25 23
31 30 30 31 33 32 32 32 32 31 28 25 26 27 28 27 26 26 25 25 25 24 25 25 23 23 23 24 25 24 23 23 23 21 21 22 23 24 25 25 25 27 28
32 32 32 34 34 32 34 36 34 30 28 25 25 27 27 25 23 25 25 24 24 23 24 22 23 24 27 28 25 26 23 22 21 21 21 21 21 22 21 25 24 25 26
33 33 34 36 35 36 36 35 35 29 24 24 25 26 26 23 28 27 25 23 23 22 21 21 22 23 24 25 27 27 28 27 22 21 20 20 21 21 22 22 23 23 22
26 31 33 35 36 37 37 37 33 25 24 25 25 26 26 26 29 27 27 24 23 21 21 21 19 17 23 23 25 26 27 28 29 27 25 23 22 23 23 22 22 23 23
27 32 34 35 35 36 37 35 30 26 24 25 26 26 26 25 30 30 30 26 24 23 22 21 21 22 23 23 23 24 25 25 26 26 27 26 26 26 26 25 26 30 28
32 33 35 37 36 36 36 34 34 28 27 28 27 27 27 26 29 30 28 26 26 24 23 22 21 21 24 28 26 25 25 26 27 28 28 29 30 31 31 30 28 26 23
30 30 32 34 36 36 34 34 32 26 28 28 28 27 28 25 27 25 27 23 20 22 22 22 23 22 28 28 27 23 22 22 23 24 25 25 24 25 26 26 27 25 24
29 30 32 36 36 36 34 32 27 25 27 26 25 25 25 26 23 23 23 23 21 23 21 20 22 24 25 27 26 26 24 25 26 24 23 22 23 24 26 27 27 28 26
29 29 29 31 33 33 30 28 25 25 24 23 15 18 22 22 22 22 21 19 20 21 21 22 23 27 27 25 26 28 29 27 25 24 24 23 25 27 30 32 32 32 30
28 28 28 27 27 27 24 23 24 24 21 21 22 16 19 22 19 20 21 21 21 21 22 24 26 25 24 25 27 27 27 27 26 25 25 25 27 28 30 30 29 30 32
28 28 28 28 28 27 24 24 24 21 19 22 19 18 16 18 17 19 19 18 21 22 21 22 24 23 23 24 23 24 25 25 24 23 24 26 28 27 25 27 29 29 24
27 27 27 26 26 26 24 22 25 22 21 19 18 17 6 5 16 21 19 19 20 23 21 21 20 19 19 21 21 21 21 23 22 23 23 24 24 25 25 27 29 25 23
26 25 25 25 24 25 25 25 27 25 25 24 21 15 12 17 20 20 19 19 21 21 18 18 17 18 18 17 18 19 20 22 21 22 23 23 23 23 24 26 26 25 24
25 25 24 24 25 27 27 25 23 24 27 27 26 23 22 18 19 20 19 17 17 18 16 16 16 16 16 16 16 17 18 21 21 20 21 21 22 23 24 22 23 23 24
24 23 23 23 26 27 25 25 26 20 20 18 24 25 20 19 18 19 19 16 12 13 13 15 15 15 15 15 16 16 17 18 18 18 18 19 21 22 20 21 22 20 24
26 23 22 25 25 27 26 26 25 25 24 19 20 21 17 16 19 19 19 8 6 7 10 13 15 15 15 15 14 14 15 15 14 14 15 17 18 21 20 19 19 19 19
25 22 23 26 25 26 26 25 25 25 24 23 16 14 13 10 3 1 2 1 0 5 4 9 14 14 13 13 13 12 12 11 11 11 12 13 15 18 18 19 19 20 16
23 23 23 27 27 26 25 25 25 24 24 22 18 15 8 7 4 5 4 2 3 3 0 4 6 9 11 12 14 12 10 8 8 9 9 10 12 14 15 18 17 16 19
22 21 21 20 21 23 26 26 24 21 23 22 20 15 10 3 9 10 5 3 2 3 3 2 3 8 10 11 12 7 8 5 6 7 8 8 10 13 13 13 14 9 10
18 18 25 26 26 23 22 24 25 20 24 24 22 14 12 10 7 7 5 2 4 3 3 2 -1 3 8 7 8 9 7 5 6 7 6 7 10 12 10 9 8 9 4
17 15 23 25 19 21 21 24 22 25 23 17 18 20 15 13 7 7 5 2 2 1 -1 0 2 3 7 9 7 8 9 6 7 7 5 8 10 9 7 10 9 6 4
20 18 16 26 22 18 19 21 24 25 22 16 15 21 16 10 9 5 3 3 3 0 1 -1 -0 2 3 7 8 7 6 7 6 6 7 7 6 7 6 7 4 4 1
24 23 21 24 25 23 19 21 24 23 25 24 17 18 18 13 11 7 5 4 2 1 0 -1 -0 0 0 4 8 9 6 5 5 6 7 9 5 5 5 3 4 3 4

GFSGL_sfc_dewp_024.txt.gz
Dewpoint
34 34 33 32 33 37 36 36 36 35 35 34 34 34 29 30 31 31 32 32 30 27 26 27 26 27 27 27 29 29 31 33 29 27 32 27 25 25 26 30 37 39 39
33 32 31 32 32 36 36 36 35 34 34 33 33 27 27 27 27 27 28 27 26 25 26 25 25 21 23 23 25 25 26 27 26 24 24 23 23 23 25 25 24 22 32
33 31 29 30 31 33 34 34 35 35 33 35 28 27 27 27 27 27 26 25 24 24 24 24 24 23 22 23 24 25 25 25 25 23 22 24 24 24 25 25 25 27 26
33 31 32 32 33 33 33 34 36 38 37 33 27 27 28 27 25 25 24 24 24 23 25 24 24 23 23 23 24 25 25 24 24 23 21 21 23 24 25 24 24 25 26
29 32 34 35 34 32 33 35 38 37 36 34 29 27 27 26 23 25 24 24 23 23 24 23 22 22 22 22 24 25 27 25 25 23 21 21 21 21 20 22 22 23 24
28 32 34 35 35 36 37 37 36 37 36 28 28 27 26 23 29 27 27 24 24 22 22 21 22 22 21 23 24 25 24 25 25 25 24 22 20 20 21 21 22 22 21
31 33 35 35 35 35 36 37 36 34 33 32 27 26 26 25 29 30 31 27 25 24 22 22 21 19 22 22 24 25 25 26 26 26 24 24 23 22 22 22 22 22 22
33 34 35 36 35 35 35 35 35 34 33 27 27 26 25 25 29 30 29 26 25 25 24 23 22 20 22 22 23 26 26 26 26 25 25 26 26 25 25 25 25 25 26
30 30 32 34 35 36 35 34 33 30 26 27 27 26 25 25 26 25 27 23 23 22 22 22 20 20 22 26 25 25 24 23 23 24 25 28 29 31 30 29 27 27 21
29 29 31 34 34 34 33 32 31 27 27 27 26 26 25 23 22 23 22 23 18 20 21 20 21 22 25 25 25 24 22 21 22 22 24 25 24 24 25 25 24 22 22
29 29 29 30 32 33 33 33 29 27 26 24 22 23 23 22 21 20 20 20 20 21 19 20 21 24 27 25 25 25 24 25 25 26 24 23 24 25 26 27 26 25 23
28 28 27 28 28 26 27 25 25 24 23 22 11 16 20 21 19 20 20 19 20 20 21 22 24 24 24 26 26 27 25 26 26 25 24 24 24 25 27 29 30 31 30
28 27 27 28 27 25 23 23 24 23 20 20 22 14 19 21 18 21 21 20 21 21 22 24 22 22 23 24 24 25 24 24 23 22 23 24 27 28 30 29 29 29 31
27 27 27 25 26 26 23 24 22 19 17 22 19 17 15 17 17 18 20 17 21 23 21 22 21 21 22 23 22 23 23 23 23 22 23 25 26 26 26 28 27 30 28
26 26 25 25 25 26 23 23 24 22 21 19 18 16 4 4 15 22 20 20 20 19 14 17 17 17 17 17 18 20 20 22 21 21 22 23 24 25 25 26 27 26 24
26 25 24 24 23 25 24 23 25 26 28 28 25 16 11 18 21 21 20 17 16 17 13 11 14 15 14 16 16 16 17 19 19 20 20 20 21 22 24 24 23 23 22
26 26 24 25 25 23 24 25 22 23 26 26 27 26 24 21 20 19 19 17 15 14 7 7 11 14 14 15 15 15 15 16 17 18 18 18 19 22 22 22 22 22 23
27 25 23 24 22 22 25 25 25 18 14 15 22 25 24 20 18 18 18 15 10 10 8 5 10 13 13 14 13 13 14 13 13 13 14 15 16 19 20 20 20 20 21
27 23 19 25 25 24 25 24 23 20 19 22 15 18 16 19 18 19 19 6 4 5 7 7 4 11 11 13 11 11 9 9 8 8 10 12 13 16 16 19 18 16 15
26 22 19 24 25 24 24 23 24 20 23 22 15 12 11 10 3 -0 -3 -6 -4 2 1 6 6 6 4 9 8 9 9 7 7 7 7 8 9 13 15 16 15 15 14
25 23 23 26 26 25 24 24 24 22 22 15 21 16 10 8 4 3 3 -1 -0 1 -2 2 -0 -2 1 4 10 7 6 1 5 5 6 7 7 9 13 13 10 11 12
23 22 20 19 19 15 20 22 25 21 17 15 15 14 10 1 2 8 8 5 3 2 2 0 2 2 2 4 5 1 3 0 1 3 4 6 7 10 9 8 6 2 5
17 14 16 20 20 21 12 17 23 22 18 23 21 14 9 14 12 11 10 6 2 1 -1 -2 -4 -0 -1 -2 -1 5 4 4 4 3 2 4 7 8 5 3 5 3 1
18 14 16 18 21 20 13 14 23 21 24 17 12 11 12 14 9 7 6 2 -4 -3 -7 -3 -1 2 2 -3 -3 2 7 4 5 6 4 4 6 7 4 5 5 3 -1
24 22 21 19 22 22 15 15 18 23 22 24 14 6 10 15 13 8 10 2 3 -3 -1 -2 -4 -0 -2 -2 0 2 0 5 4 5 5 6 4 3 4 4 1 5 1
29 26 25 24 23 24 24 17 16 21 20 23 18 11 13 12 11 6 5 -1 3 1 -3 -5 -3 -1 -3 -1 1 3 0 2 4 6 6 7 3 3 2 2 1 2 4

GFSGL_sfc_dewp_027.txt.gz
Dewpoint
34 34 34 34 33 35 36 37 36 36 35 35 35 35 32 30 30 30 29 29 27 25 25 25 25 26 25 25 26 26 26 27 25 26 30 30 24 23 24 26 27 29 36
34 34 32 32 31 32 35 36 36 35 36 34 35 36 35 29 28 27 27 26 25 24 24 24 24 22 23 23 23 24 24 25 24 23 25 24 23 23 23 24 24 25 28
33 31 31 32 33 33 33 34 34 35 35 36 36 36 31 29 28 28 27 25 23 24 24 24 23 23 22 22 23 23 24 25 26 25 24 24 24 23 23 24 25 25 24
29 31 32 33 33 33 32 33 34 35 36 35 36 31 31 30 27 25 23 23 24 24 25 24 23 22 21 22 21 24 25 26 26 25 24 22 22 23 23 22 22 23 23
29 31 33 34 34 35 35 36 36 36 36 37 35 32 30 27 23 24 25 25 24 24 24 23 23 23 25 22 19 20 22 23 25 25 24 24 22 21 20 21 21 22 23
29 32 34 34 34 34 34 35 36 37 33 34 34 31 25 23 29 29 30 27 25 24 24 24 23 24 23 22 23 24 23 22 22 23 23 23 23 21 21 21 21 21 20
32 33 34 35 34 34 35 34 34 33 33 32 30 26 25 26 29 30 29 26 26 25 24 23 20 18 21 21 23 23 24 26 26 26 24 23 23 23 22 21 21 21 21
31 32 33 33 33 34 34 33 34 34 30 28 26 25 25 25 27 25 27 24 22 22 20 20 20 20 21 21 23 26 23 24 26 25 26 26 25 25 24 24 24 25 24
28 29 30 31 33 33 33 32 32 30 27 27 26 25 24 21 22 22 23 22 21 20 20 20 20 20 23 26 26 24 23 23 24 25 24 25 26 28 29 28 26 25 20
28 28 30 30 31 31 31 31 32 29 27 26 25 24 22 21 21 20 20 20 14 20 20 19 21 22 25 25 25 24 22 21 22 23 23 23 25 24 24 24 23 22 21
28 29 28 28 28 28 29 30 28 26 25 24 23 23 22 21 20 20 20 19 20 20 19 20 21 24 23 25 25 25 25 25 25 26 26 26 25 25 25 24 24 23 21
28 27 27 28 27 24 25 25 25 24 23 23 9 15 20 21 19 21 22 21 20 19 21 21 23 21 23 24 24 26 25 25 24 23 24 24 25 26 27 28 29 29 28
28 27 27 26 27 25 22 23 23 22 19 19 21 14 18 21 18 20 23 22 21 20 20 20 20 20 20 21 23 23 23 22 21 21 21 23 25 27 28 29 30 30 30
27 27 27 25 25 26 23 23 22 19 17 21 18 17 15 16 16 17 21 17 20 19 17 17 17 20 18 19 19 20 21 22 21 20 21 23 25 26 26 28 27 29 28
27 27 26 25 24 26 23 23 25 23 21 19 18 17 4 4 14 22 20 18 13 17 10 8 11 14 14 15 16 17 17 18 17 19 19 19 21 23 25 26 26 26 23
29 28 27 25 23 25 25 23 25 25 27 28 28 16 11 19 23 21 19 18 16 15 10 4 1 5 10 14 13 14 15 14 15 16 16 17 18 20 22 23 23 24 23
29 29 29 25 25 23 24 25 23 22 25 25 26 27 25 24 21 19 18 16 14 13 4 1 -4 1 4 13 13 13 12 12 13 13 14 14 15 18 20 20 21 22 22
29 28 27 26 27 24 24 25 24 23 14 16 22 24 27 23 20 18 18 15 9 9 6 2 -1 0 5 11 12 11 10 8 8 9 10 11 12 14 16 18 19 16 18
29 28 26 23 25 22 24 21 23 23 17 17 14 17 17 23 20 19 19 6 4 4 5 6 -0 3 3 5 1 5 4 6 5 3 6 7 8 11 14 15 15 14 14
30 27 25 22 23 23 23 20 23 22 21 22 13 13 13 10 3 -1 -3 -7 -7 2 0 5 5 3 -1 -1 -5 -5 1 2 5 5 4 3 5 8 11 12 13 10 11
30 26 25 25 22 21 20 21 23 23 23 17 14 10 11 11 8 6 9 1 3 3 0 3 -1 -4 -3 -4 2 -4 -4 -6 2 4 4 5 3 5 9 9 9 9 11
28 25 23 19 18 12 16 17 17 18 19 19 15 14 10 5 12 10 8 8 5 5 4 2 2 2 1 2 -0 -9 -6 -8 -3 1 2 4 5 6 6 5 4 1 6
25 20 18 18 17 15 11 14 15 17 21 21 22 16 8 8 11 10 9 9 3 2 2 0 -3 -1 -3 -6 -8 -2 -4 -4 -1 1 1 2 5 6 3 1 3 3 1
26 22 19 17 12 16 16 14 12 15 18 21 20 16 15 10 10 9 9 7 -2 -1 -6 -2 1 2 1 -6 -9 -5 1 -4 -2 2 3 3 5 6 4 5 4 2 0
28 26 24 23 21 21 22 20 16 14 17 18 17 19 16 13 10 11 8 6 3 -2 2 0 0 1 1 -1 -2 -1 -4 -1 -5 -2 1 5 3 1 2 4 1 4 1
30 28 27 26 23 22 23 23 21 20 17 19 22 19 17 18 18 15 11 6 4 3 2 -3 -1 1 0 -1 0 1 -3 -3 -6 -2 -2 5 4 2 1 1 2 2 4

GFSGL_sfc_dewp_030.txt.gz
Dewpoint
34 34 34 33 32 32 33 35 36 36 36 35 35 35 34 34 34 32 31 30 29 27 25 25 25 25 25 24 24 24 25 25 23 22 25 26 29 28 25 27 28 29 32
34 32 30 31 32 32 32 33 34 35 35 35 34 34 35 36 32 29 29 27 25 24 24 24 24 22 23 22 22 22 22 23 23 23 24 25 25 25 25 25 23 22 26
29 29 31 31 32 32 32 32 33 34 34 35 35 36 36 32 29 29 27 25 23 24 24 24 24 24 22 21 21 21 22 22 26 26 24 26 25 25 24 24 24 25 23
28 30 31 32 33 32 32 33 34 35 35 35 36 37 34 30 29 25 23 24 24 24 25 25 24 23 22 21 21 22 20 22 22 21 23 25 24 24 24 23 22 24 22
27 30 32 33 33 33 33 34 35 35 35 34 33 32 30 26 23 25 26 26 26 26 25 25 25 25 26 24 21 20 20 21 22 21 21 21 22 23 21 22 21 21 22
26 32 33 33 33 33 34 34 34 34 34 34 32 29 25 24 30 30 29 26 25 25 23 23 23 21 21 22 22 23 22 21 23 23 21 20 20 22 22 21 22 21 20
31 32 32 33 33 32 33 33 32 32 30 30 27 25 24 26 29 26 27 24 22 21 19 19 18 17 21 20 22 23 23 25 26 25 25 23 24 24 23 23 22 21 21
29 29 29 31 31 32 32 34 31 32 32 28 25 24 24 24 23 23 24 23 21 20 19 19 19 20 21 21 24 26 24 23 23 22 25 24 25 26 26 26 25 24 24
27 28 28 30 29 30 30 30 30 31 30 27 25 24 21 20 22 21 21 21 20 19 19 19 20 20 23 26 24 24 23 22 25 25 26 25 25 25 25 28 25 25 23
27 28 29 28 27 27 27 28 30 30 27 26 24 23 21 20 20 20 21 20 15 20 20 20 21 21 23 24 25 23 22 21 22 24 25 25 25 26 26 25 24 23 23
28 28 28 27 27 26 25 27 28 26 25 23 23 23 21 21 20 20 22 20 20 21 20 20 21 22 21 22 24 24 24 24 23 23 24 25 26 27 26 25 25 23 22
28 28 27 27 27 25 24 24 25 23 23 23 10 15 20 21 21 21 22 21 20 18 19 19 20 20 20 20 22 24 22 22 22 21 22 23 24 25 26 29 29 27 25
28 28 27 27 25 25 24 23 23 22 19 19 20 15 18 21 19 20 22 22 19 16 18 18 18 18 18 19 18 19 20 20 20 19 19 20 22 25 27 28 29 30 29
28 27 27 27 25 25 24 23 22 19 17 20 19 18 16 16 16 17 21 18 17 18 15 14 14 18 14 15 17 18 18 18 18 18 18 20 22 24 25 28 27 29 28
27 28 27 28 26 24 25 23 25 23 22 20 20 18 7 5 15 20 20 16 11 15 8 7 9 10 11 13 14 14 15 14 14 16 16 17 18 20 23 25 25 25 25
29 29 29 29 26 24 25 26 26 26 26 28 28 20 13 20 23 23 19 18 16 15 9 2 -3 -4 3 11 12 12 12 10 11 13 14 14 15 17 19 22 23 23 23
28 30 29 29 27 25 24 24 24 25 26 26 26 26 27 22 25 22 18 17 14 13 5 2 -6 -7 -2 9 11 11 10 9 10 10 11 12 13 15 17 18 20 19 19
30 29 29 28 27 27 23 23 24 22 18 15 21 25 25 27 25 21 18 16 9 9 7 3 -0 -1 4 8 9 9 9 7 6 6 8 7 9 12 15 15 15 16 16
31 30 29 27 26 25 24 23 20 18 21 18 15 18 17 26 25 22 20 8 6 5 6 7 2 4 5 5 -2 -3 -7 2 5 3 5 5 5 7 12 13 13 10 12
32 30 29 26 25 21 20 22 23 21 21 22 19 15 11 13 8 1 -1 -5 -4 5 4 7 7 6 3 2 -4 -9 -3 -5 0 4 4 4 4 6 8 9 11 11 11
31 31 28 26 25 20 19 17 19 20 21 22 21 16 10 16 13 9 7 1 5 6 4 5 4 0 -0 -1 3 -1 -2 -7 -3 1 3 5 5 5 7 8 8 10 10
29 29 27 25 22 14 17 17 16 16 16 17 18 16 12 16 18 13 10 9 7 8 7 5 6 6 5 6 4 -6 -5 -7 -6 -3 -1 3 5 7 6 6 7 6 7
29 29 26 23 21 17 14 17 14 12 14 15 16 17 11 14 11 12 12 10 8 6 5 4 2 3 2 -2 -3 2 1 1 -0 -5 -4 -1 5 7 6 5 6 6 5
29 28 25 24 21 20 19 20 20 16 17 17 17 18 17 16 15 14 12 12 9 4 -2 1 4 5 5 -3 -4 -2 3 -1 -1 1 -3 -2 2 6 5 6 6 5 5
30 29 26 24 24 23 22 22 22 22 21 20 20 17 18 18 16 14 15 13 12 8 5 2 3 4 5 3 1 1 -2 1 -4 -5 -1 -0 -1 -2 3 6 4 5 5
30 30 29 28 26 25 25 25 24 24 23 23 22 21 20 19 18 18 17 13 13 13 11 8 5 4 3 3 2 1 -4 -4 -6 -5 -4 2 -0 0 2 5 5 5 5

GFSGL_sfc_dewp_033.txt.gz
Dewpoint
36 37 36 35 35 35 35 35 36 37 36 36 37 38 37 36 37 36 35 32 30 30 29 28 27 27 26 25 24 22 20 20 18 17 17 20 23 24 25 26 27 28 27
35 33 33 34 33 34 34 34 34 33 35 35 37 36 36 37 37 33 29 30 29 28 26 26 26 23 25 24 23 21 20 20 19 17 17 19 21 23 25 27 26 23 24
28 29 32 33 33 33 32 33 34 35 36 38 37 37 35 31 31 30 30 28 25 26 26 26 25 25 24 23 22 21 20 20 21 19 19 17 17 22 23 24 25 26 23
27 29 32 34 33 33 33 34 35 36 36 36 36 37 35 32 30 27 25 26 27 27 26 25 25 23 22 21 21 22 21 22 19 18 16 16 17 18 22 21 23 24 23
26 30 34 34 33 33 33 34 36 35 34 35 34 34 30 26 25 28 28 27 25 22 21 19 19 21 23 22 19 19 19 18 19 19 18 16 15 15 16 19 22 23 25
26 30 33 33 33 33 33 34 35 34 34 34 33 29 27 25 30 27 27 24 20 17 16 16 16 18 19 21 22 23 22 20 21 19 18 20 18 18 18 19 20 21 20
28 32 31 31 31 32 32 33 32 34 33 34 31 27 26 27 25 24 26 21 19 17 16 15 15 15 19 18 20 22 25 25 26 26 24 20 18 19 19 21 22 21 18
31 29 29 30 30 30 30 29 31 35 34 33 28 26 25 20 23 22 22 19 19 17 16 17 16 17 18 20 24 21 20 19 22 26 28 24 23 24 23 21 23 27 23
27 28 28 30 29 28 28 29 30 32 34 32 27 25 22 20 21 21 21 22 20 19 18 18 18 17 21 24 22 23 19 17 21 22 24 26 27 28 26 26 24 25 24
28 28 29 30 28 28 28 27 30 33 33 29 25 24 22 21 19 20 21 24 24 21 19 17 18 19 22 22 23 22 21 18 18 19 20 22 26 27 28 28 24 21 20
29 29 29 28 28 28 27 26 27 28 28 28 26 25 23 22 21 20 21 24 22 21 18 17 17 19 19 20 20 22 23 21 22 21 20 20 21 23 25 29 29 26 22
30 29 29 29 27 27 27 25 25 26 26 26 27 26 24 25 22 21 21 23 21 22 20 17 19 18 18 18 18 19 19 20 21 21 21 20 22 23 24 26 29 31 29
29 28 29 28 28 27 25 25 24 24 25 26 24 25 24 25 24 21 21 24 21 21 21 17 17 17 16 15 16 17 17 18 19 19 19 20 22 25 27 30 31 31 31
29 28 28 28 28 29 25 24 23 25 25 24 24 23 24 24 25 23 23 24 20 19 18 16 16 15 14 15 15 15 16 15 16 18 19 20 22 24 25 28 28 29 30
29 29 29 29 29 28 26 25 25 26 26 25 24 26 27 26 25 24 24 23 23 19 17 17 14 14 11 12 14 13 11 10 14 17 18 18 19 20 22 25 25 27 27
30 30 30 30 30 29 26 25 28 28 28 27 27 29 30 27 24 24 24 20 17 15 15 16 15 15 13 10 13 12 12 8 11 15 16 17 17 19 20 22 23 24 25
29 30 31 31 30 29 28 27 26 26 28 28 28 27 27 27 25 26 24 20 17 15 16 16 16 15 14 10 10 10 10 10 9 12 15 15 16 18 19 20 21 21 21
29 31 31 31 31 31 29 29 28 27 26 25 26 24 26 26 26 28 24 21 19 17 16 16 16 16 14 11 9 9 9 10 9 8 13 14 15 16 17 17 18 18 18
29 29 31 31 31 31 30 29 28 28 27 25 25 24 25 25 26 27 25 24 22 20 18 16 18 16 15 13 14 14 13 12 10 10 12 12 14 13 15 15 17 16 15
28 31 32 31 30 30 29 27 26 26 26 26 25 25 26 21 26 27 26 25 23 22 22 19 17 17 17 16 16 15 14 14 10 9 11 13 14 13 14 14 16 16 14
29 29 31 31 29 29 30 28 27 26 25 25 25 28 26 26 26 27 26 25 23 23 23 21 21 20 19 17 15 15 13 14 11 8 9 12 12 12 12 13 14 14 12
30 29 29 29 29 29 28 28 27 25 24 24 25 26 22 24 26 25 26 26 26 24 24 23 22 20 19 17 17 17 14 13 13 10 9 10 11 12 11 12 12 12 11
31 31 30 29 29 28 28 27 26 26 25 25 25 25 26 26 26 25 27 27 26 25 23 22 22 21 20 18 18 16 14 14 14 11 9 11 11 12 11 11 10 10 10
29 29 28 30 29 29 28 28 28 26 25 26 27 27 26 27 27 27 26 27 26 25 24 21 20 19 19 19 18 16 14 15 14 10 6 10 11 11 10 10 10 10 10
30 30 31 31 30 30 29 28 28 29 29 29 28 29 28 28 26 26 28 27 24 24 23 19 19 19 17 16 17 15 14 11 10 5 8 10 10 10 8 10 10 9 9
30 30 29 29 29 31 30 30 30 29 29 30 30 29 29 28 28 27 27 26 24 23 23 22 20 17 17 17 16 14 9 8 8 3 8 10 10 10 10 10 7 10 7

GFSGL_sfc_dewp_036.txt.gz
Dewpoint
37 38 37 34 33 33 32 31 31 33 32 31 32 33 33 34 36 38 39 38 32 31 31 30 29 28 26 25 24 23 21 20 18 18 18 20 21 21 21 24 25 26 25
35 33 31 30 30 32 31 30 33 33 32 32 34 33 34 34 35 33 33 32 31 30 29 28 26 22 26 25 22 22 20 21 20 19 19 19 20 21 20 22 22 20 23
28 27 28 29 30 30 30 32 32 32 32 34 33 33 33 35 34 33 31 29 28 28 28 27 26 25 24 22 21 20 19 19 22 22 19 18 18 19 19 21 22 24 21
24 24 27 30 31 31 32 32 32 33 33 32 33 34 34 32 29 28 26 28 28 26 26 25 23 21 20 21 19 19 17 19 20 20 18 17 17 18 18 18 19 21 24
24 24 27 32 32 31 33 32 32 34 33 33 33 33 31 28 26 29 27 26 26 23 22 19 19 20 21 21 19 19 19 18 19 18 18 17 17 17 17 18 17 17 19
25 25 29 32 30 31 31 31 32 33 32 32 32 31 29 24 28 25 26 24 22 19 18 18 18 19 19 21 22 22 22 21 22 21 22 21 19 19 18 22 20 22 19
24 27 30 30 30 30 29 29 29 31 32 33 32 31 29 29 23 23 23 21 20 19 18 17 16 14 19 18 20 22 25 24 26 25 23 21 24 22 21 21 19 19 20
25 28 28 29 28 28 28 29 30 31 32 31 32 31 29 26 22 21 22 22 22 21 19 19 19 18 18 20 20 21 20 21 19 20 24 22 21 22 25 26 25 24 23
25 25 26 27 27 28 28 30 30 29 29 31 32 30 29 26 21 20 22 23 23 22 20 19 18 17 19 21 21 22 20 18 20 20 21 23 24 25 28 26 25 23 24
25 26 26 27 28 28 29 29 29 29 28 31 30 29 26 27 22 20 21 25 27 23 21 19 20 17 19 20 21 21 22 18 16 17 19 20 22 22 28 28 25 24 22
27 27 26 26 27 29 29 29 28 27 28 30 31 29 28 27 25 21 20 26 25 23 21 19 19 18 18 19 18 21 21 18 19 19 19 20 20 22 23 25 28 30 26
28 26 26 27 28 26 28 28 27 27 27 28 33 31 28 28 26 24 22 22 23 25 22 21 22 17 18 17 17 17 18 20 21 22 22 21 23 24 26 28 30 30 29
27 26 27 28 27 26 27 27 26 25 26 26 25 26 25 26 26 25 23 21 23 24 24 21 18 16 15 14 14 15 17 19 19 20 20 20 22 24 27 30 32 34 32
27 27 27 28 27 26 25 25 25 26 26 25 25 24 24 25 26 26 26 25 24 23 22 20 19 17 16 15 16 15 17 16 17 19 20 21 22 23 25 28 29 30 30
27 27 28 29 28 26 25 25 26 26 27 26 25 25 28 28 28 26 25 25 26 23 22 22 20 18 16 14 16 15 15 13 13 18 19 19 20 20 22 25 25 27 28
28 28 29 29 29 27 26 25 28 28 28 28 28 29 31 28 28 26 24 24 22 19 20 22 22 22 20 15 15 15 15 13 11 14 17 17 18 20 20 22 23 24 25
29 29 30 29 29 29 29 29 27 28 29 29 29 29 28 28 28 28 27 25 22 19 21 22 23 23 22 16 14 14 14 14 14 12 15 16 17 17 19 21 21 21 22
30 30 29 29 30 30 30 31 30 28 28 29 29 27 27 27 27 27 27 26 23 22 21 22 22 22 20 16 15 14 15 16 15 13 15 16 17 17 18 17 19 20 19
28 28 31 32 32 31 31 32 31 29 27 27 28 26 28 27 27 27 26 28 23 23 22 21 23 21 20 18 20 20 18 18 17 16 16 15 17 15 15 16 17 16 16
29 29 30 30 31 32 29 30 30 30 29 26 26 26 27 27 30 30 30 30 27 25 24 22 22 22 22 21 22 21 20 19 18 15 16 17 18 17 15 15 16 17 15
29 29 29 29 29 28 29 30 31 31 29 28 29 33 27 27 27 28 29 31 27 26 27 24 25 24 23 23 20 20 19 20 17 15 15 15 16 16 14 15 15 14 12
32 32 32 32 33 33 29 29 31 31 29 29 30 29 27 29 28 28 29 31 32 31 29 28 26 24 24 22 21 23 20 19 19 17 15 13 15 16 15 14 14 13 13
34 33 31 30 31 32 32 30 29 32 31 32 30 30 31 31 31 29 30 32 32 32 31 28 28 26 26 25 25 22 20 19 19 19 14 15 15 16 16 15 13 13 12
33 32 29 30 31 31 32 31 32 30 31 32 32 32 32 32 32 32 32 32 32 32 32 28 27 26 25 25 24 23 20 19 19 17 12 13 14 14 14 12 14 12 13
34 33 33 32 31 31 31 32 32 32 32 32 32 32 33 32 32 32 32 32 32 31 30 29 27 27 25 23 23 22 20 16 16 14 13 12 13 11 11 11 12 13 11
33 32 32 33 32 32 31 31 32 32 32 32 32 32 32 32 32 32 32 32 31 30 30 30 27 26 26 24 22 21 18 15 14 10 13 12 13 13 13 12 6 12 9

GFSGL_sfc_dewp_042.txt.gz
Dewpoint
44 44 43 41 40 38 37 35 34 34 34 33 33 34 34 34 35 35 35 34 34 34 33 32 32 31 31 30 29 27 25 24 20 20 20 22 22 23 24 25 25 23 23
43 41 42 40 38 37 36 34 33 33 34 33 33 33 33 33 33 34 34 33 32 32 31 29 28 23 26 25 25 24 22 21 20 18 20 21 22 23 23 23 22 19 21
37 38 38 38 34 34 34 32 33 33 33 33 33 34 33 34 32 33 33 32 31 29 29 27 26 25 23 24 22 20 21 19 21 19 18 20 21 22 21 22 22 23 22
37 36 36 36 35 34 32 33 34 34 33 33 34 34 34 32 31 31 30 29 28 26 27 25 25 23 22 20 18 19 18 19 19 19 19 19 19 21 24 23 22 23 22
36 33 34 34 34 33 33 34 35 35 33 34 34 34 32 32 28 30 27 27 27 25 25 24 22 25 25 23 18 20 21 20 18 18 18 20 22 20 18 23 25 24 23
35 33 33 31 32 33 33 35 35 34 33 33 33 33 32 29 30 28 26 24 25 25 24 23 22 25 24 27 26 22 23 20 20 22 22 21 20 22 25 22 21 20 19
32 31 30 31 31 32 31 30 30 32 34 34 33 33 33 32 29 26 24 23 24 25 24 23 21 17 24 21 22 21 20 22 24 23 22 25 23 20 20 19 19 20 21
31 28 27 30 30 30 30 30 32 33 33 33 32 33 33 31 30 27 24 22 25 25 25 23 22 21 22 20 20 18 18 19 18 17 22 19 18 19 21 21 22 23 24
28 27 25 27 27 28 28 31 32 32 32 31 31 32 32 31 29 26 24 24 25 25 24 24 23 20 21 21 19 19 18 17 19 20 19 20 25 26 26 25 25 24 22
26 27 27 28 27 27 29 31 32 32 30 30 30 32 32 31 29 27 25 27 25 26 25 23 23 20 19 20 19 19 17 18 17 15 18 21 22 24 27 26 27 25 24
28 28 26 26 27 28 30 30 30 30 30 31 30 31 31 31 32 28 27 25 26 26 25 24 25 22 22 20 19 19 19 19 18 19 20 20 23 23 23 24 25 27 27
30 30 29 29 28 25 30 30 30 30 30 30 32 30 31 30 31 30 28 26 26 23 24 24 25 24 22 21 19 19 18 20 19 18 18 20 21 22 23 24 26 27 28
31 31 29 29 27 27 29 29 29 29 29 29 30 29 31 31 31 31 29 28 27 24 25 26 25 24 24 22 22 21 19 20 18 14 17 18 19 21 23 24 25 26 26
29 29 29 29 29 29 29 28 28 31 30 30 29 29 29 29 28 29 28 28 27 26 25 27 25 23 20 20 20 22 22 20 18 16 16 18 19 20 20 23 22 24 24
28 27 29 31 31 31 29 29 29 30 31 30 30 31 30 30 29 28 27 31 31 29 22 21 21 22 22 21 22 21 21 20 18 16 16 17 18 18 18 20 23 23 22
28 29 32 33 32 31 29 28 30 29 30 30 30 29 29 30 29 29 29 28 27 26 21 19 19 20 22 20 18 19 19 18 19 18 17 18 18 17 17 18 21 22 20
30 31 31 30 31 30 29 29 29 30 31 31 31 30 30 29 30 30 29 29 29 27 23 19 20 23 22 21 20 19 17 17 17 18 15 16 17 18 17 18 18 19 18
31 30 30 30 31 32 32 31 30 29 29 28 30 30 31 30 30 30 29 29 26 27 25 23 22 24 24 22 20 20 18 16 16 17 13 13 12 15 18 15 16 17 17
31 31 31 32 33 32 32 31 30 30 30 29 29 29 29 31 31 30 30 27 24 24 24 25 23 24 25 22 20 20 15 14 14 10 13 13 10 15 13 17 13 15 15
29 30 30 32 33 32 32 32 32 31 30 29 29 29 30 28 28 28 28 27 26 24 24 25 25 25 26 26 22 20 18 19 16 16 13 9 11 11 13 11 12 9 15
32 31 31 31 32 33 33 32 33 32 31 30 29 30 30 31 30 30 30 29 27 27 27 26 25 25 26 26 23 20 22 20 19 17 15 12 8 8 15 14 12 13 15
32 32 31 31 32 32 33 32 31 29 27 28 31 30 30 32 30 30 30 29 30 30 31 30 28 27 26 25 24 23 21 20 18 14 15 12 10 12 13 11 14 9 12
29 30 31 30 31 31 31 30 30 30 29 29 30 29 29 31 31 30 30 30 30 30 30 30 31 29 29 27 26 24 23 22 20 17 14 10 10 11 9 9 10 12 7
26 27 28 29 32 31 31 30 30 28 28 29 30 31 31 31 31 32 32 32 32 31 31 31 31 30 29 30 28 26 23 22 22 17 12 9 9 11 10 9 8 9 6
27 27 28 28 30 32 31 28 29 28 28 29 30 30 31 31 30 30 31 31 32 32 32 32 32 31 30 29 29 26 23 22 19 16 16 12 7 6 6 7 5 7 7
28 29 29 30 30 30 28 26 25 25 24 23 24 25 25 26 28 29 30 28 30 30 31 32 32 31 30 29 29 27 24 21 18 15 17 15 12 9 8 10 6 6 9

GFSGL_sfc_dewp_045.txt.gz
Dewpoint
42 42 41 39 40 40 38 37 35 34 33 31 31 31 32 34 33 33 33 33 32 32 32 31 30 29 27 27 26 25 23 22 19 20 21 22 22 23 23 25 25 24 24
42 41 40 40 41 37 36 35 35 33 33 31 32 32 33 33 32 31 33 33 32 31 31 29 27 23 23 24 23 20 20 20 20 18 19 20 21 22 22 23 22 21 23
38 39 43 42 39 36 35 35 33 33 31 31 32 33 33 33 30 31 32 32 30 29 26 26 24 23 21 21 19 19 19 18 20 19 18 20 20 21 21 23 24 24 24
38 39 39 39 37 34 33 33 33 32 31 32 33 34 35 32 31 32 30 28 27 26 26 26 25 22 19 18 18 18 18 20 20 19 18 18 19 21 23 21 23 24 25
38 37 38 38 35 34 34 34 34 33 32 32 33 34 33 31 29 29 27 26 25 25 25 25 22 26 29 24 18 19 20 20 20 19 19 20 20 20 21 26 20 20 19
38 36 34 35 33 35 33 33 33 33 32 33 32 33 32 30 31 30 27 24 24 24 23 24 23 24 26 26 23 22 21 18 18 19 19 20 20 23 21 19 19 18 17
33 32 33 34 33 32 31 30 29 30 31 32 31 32 33 31 31 30 28 23 23 23 24 23 22 21 23 20 20 20 19 19 23 22 20 20 20 19 18 18 19 20 20
30 31 31 31 30 30 29 29 30 32 32 31 31 31 33 32 32 31 27 22 23 24 24 23 22 21 21 20 19 19 18 19 19 17 19 17 17 19 22 22 23 24 24
29 28 30 31 30 30 29 32 32 31 31 31 30 30 32 31 32 30 26 24 24 24 25 24 24 21 21 20 20 19 18 18 18 20 20 22 24 24 25 27 24 23 21
30 29 30 31 30 31 31 31 31 31 30 30 29 31 32 30 31 30 27 26 25 25 24 24 23 20 20 21 19 18 17 16 18 17 18 20 22 24 26 25 24 22 23
31 32 32 32 31 30 30 29 28 29 29 30 30 30 30 30 29 31 29 26 25 25 25 24 24 23 23 23 22 20 17 19 20 19 19 18 20 22 22 24 24 25 24
32 32 32 32 31 30 29 29 29 29 29 29 27 28 29 30 31 32 32 30 26 23 24 24 24 26 25 24 23 23 22 22 16 17 17 17 18 19 20 22 24 25 26
32 32 32 32 30 29 28 29 29 29 28 28 28 26 27 29 29 31 32 31 29 26 24 24 26 26 25 25 25 25 22 19 16 12 14 16 17 19 20 21 22 23 25
30 30 30 30 30 29 30 29 28 27 25 28 27 27 26 26 26 26 28 29 30 27 24 24 23 24 21 21 21 22 22 19 17 14 13 15 18 18 18 19 19 22 22
28 29 29 30 30 30 31 29 28 27 27 26 26 27 24 23 27 28 27 27 26 26 25 25 22 19 20 22 21 21 20 19 17 13 13 15 17 18 17 18 19 21 18
28 28 28 28 28 29 29 28 30 29 30 31 31 27 27 30 31 31 30 31 31 29 23 17 10 9 15 20 21 18 17 16 17 16 12 15 15 15 17 18 19 18 18
27 28 28 29 28 28 27 27 27 28 31 31 31 32 32 31 30 31 30 30 29 28 18 17 12 14 16 22 23 19 17 17 16 15 13 11 13 16 16 17 16 17 16
28 29 29 29 29 29 29 29 29 28 26 26 29 30 30 31 31 33 31 31 25 27 26 22 19 19 19 22 23 20 17 15 14 14 9 5 3 9 10 15 15 9 15
28 28 29 29 29 29 31 31 31 30 27 27 28 26 26 31 32 32 31 29 26 24 24 24 24 21 22 22 21 19 13 10 8 5 5 7 3 8 7 12 11 10 9
33 31 31 31 30 31 30 30 31 31 31 31 29 27 27 24 26 27 29 29 27 26 25 24 24 24 23 24 24 20 16 10 9 7 6 8 -0 3 4 7 6 7 12
27 28 27 28 28 29 29 30 31 31 31 29 27 26 25 28 30 27 27 28 28 27 27 26 25 24 25 25 24 21 20 18 16 14 12 6 -1 4 6 8 5 13 12
26 26 25 24 25 26 26 29 31 28 24 23 24 25 27 30 29 29 30 30 30 29 29 27 26 27 26 25 25 21 19 17 16 13 10 6 6 5 4 6 4 6 7
19 21 22 23 24 25 27 27 30 28 27 24 22 24 24 27 29 29 30 30 31 31 31 31 30 29 27 27 27 26 23 20 19 18 13 9 7 5 3 4 4 4 4
22 23 23 25 27 26 27 26 28 28 25 26 26 26 27 28 30 30 30 31 32 32 31 31 30 30 30 29 28 27 25 24 22 20 15 11 9 8 3 4 3 1 1
18 19 20 20 22 22 23 23 24 23 22 17 17 18 20 22 22 25 26 27 30 31 30 30 32 30 30 30 29 27 26 24 20 17 14 10 8 5 2 3 -0 3 1
14 16 13 15 15 17 19 19 20 19 17 16 16 15 17 19 18 20 20 18 17 18 26 29 31 32 31 30 30 28 26 25 21 17 17 14 11 9 2 1 2 1 4

GFSGL_sfc_dewp_048.txt.gz
Dewpoint
43 44 43 42 43 43 40 39 36 38 37 34 32 31 32 34 33 33 31 32 32 32 31 30 29 28 26 25 24 23 21 20 17 19 20 21 20 21 21 23 24 24 25
42 42 40 41 43 41 39 39 39 36 35 33 33 31 33 33 33 31 31 32 32 31 30 27 26 23 22 24 22 19 19 19 19 17 18 19 19 20 21 22 22 23 24
40 40 42 44 41 41 38 37 37 34 33 31 31 32 33 34 32 31 32 32 31 28 26 24 24 25 22 22 19 19 19 18 19 19 18 19 19 20 21 23 23 23 23
41 42 43 43 40 36 37 35 34 33 31 31 32 33 34 34 32 32 32 32 28 26 26 26 25 23 20 19 18 18 18 19 20 19 19 19 19 21 22 21 22 21 19
43 42 43 42 37 36 35 34 34 33 31 31 33 34 34 34 31 32 29 28 26 25 26 25 25 24 28 26 19 19 20 19 19 18 17 19 19 19 19 23 19 17 18
41 41 40 36 36 36 35 34 34 33 31 32 33 33 33 31 32 33 29 26 25 24 23 24 24 26 26 27 25 24 21 19 18 17 19 18 18 21 21 19 18 18 18
36 36 37 36 35 35 33 31 29 30 31 32 32 32 32 33 33 33 31 25 24 24 23 24 23 22 24 20 21 20 19 20 21 20 19 18 17 16 17 18 20 21 22
32 32 33 33 32 32 31 31 33 33 32 32 32 32 31 33 33 33 31 24 23 24 25 25 23 22 22 20 19 19 19 18 18 17 19 18 18 20 22 24 26 26 24
31 31 32 33 32 31 36 34 33 31 31 31 31 30 30 32 34 33 30 24 23 24 25 25 24 22 23 23 20 20 18 17 17 20 20 22 22 23 24 24 22 21 19
31 31 32 33 37 36 33 32 31 30 29 29 29 30 31 30 32 33 31 25 25 26 25 24 26 22 23 22 20 19 17 16 16 18 18 19 20 21 23 23 23 21 21
35 36 38 37 33 31 30 29 29 29 28 28 28 29 29 30 29 33 32 26 25 26 25 24 24 25 24 24 24 21 18 19 20 20 18 19 19 20 20 20 22 23 22
36 35 32 32 31 30 30 30 29 29 28 28 24 27 28 29 31 32 33 32 28 25 25 25 24 26 25 27 26 25 25 24 19 17 17 17 17 17 18 20 21 23 24
32 31 31 31 31 30 29 28 28 27 26 27 27 26 26 28 29 32 32 33 32 27 26 26 25 25 25 26 27 26 23 21 17 11 15 15 16 18 20 20 20 21 23
28 28 29 29 29 29 29 29 29 25 23 26 26 26 26 26 26 27 28 29 32 30 26 27 24 24 20 21 21 23 22 20 18 16 14 14 17 18 18 19 18 19 21
27 28 28 28 28 28 30 30 29 28 27 26 26 26 23 23 26 29 29 27 27 29 25 23 24 22 22 22 21 22 22 20 18 15 13 13 16 17 17 19 19 18 17
26 27 27 27 27 28 28 28 30 30 30 30 31 28 27 29 30 31 31 32 31 29 26 21 23 18 19 19 19 20 21 18 19 17 13 15 13 13 15 17 18 15 15
27 27 27 27 27 27 27 27 27 29 31 31 31 31 32 31 31 31 32 32 33 31 25 20 19 16 16 18 19 19 20 19 18 17 16 13 11 14 13 15 15 15 14
29 28 28 28 28 29 28 29 29 29 29 29 30 31 31 31 31 31 32 31 30 30 26 25 22 20 19 19 20 20 21 16 16 15 13 8 2 8 9 11 13 6 11
25 27 27 28 28 28 30 30 30 30 31 30 30 28 29 30 31 31 31 30 29 24 25 26 25 24 21 21 20 19 18 15 14 10 10 7 1 8 6 8 8 8 8
25 24 24 26 25 25 24 24 26 26 28 29 29 28 22 20 20 24 28 30 30 27 26 25 25 26 24 22 21 21 17 16 15 13 7 2 -1 3 3 3 2 4 10
18 18 19 21 22 22 22 22 23 24 25 26 29 28 22 21 25 28 28 28 29 29 27 26 26 25 25 24 23 23 20 20 19 16 13 10 0 2 6 4 3 8 10
19 19 20 22 22 22 24 25 26 26 26 26 28 26 21 18 27 27 28 29 29 29 29 29 28 26 26 25 25 25 22 21 19 17 13 10 9 6 2 4 2 1 5
18 18 17 18 18 19 20 22 22 20 23 27 26 23 23 23 23 25 26 30 30 31 31 30 28 27 27 27 28 27 24 22 22 19 15 10 8 6 -1 2 2 1 1
13 15 12 12 12 13 15 16 19 18 17 18 17 18 17 17 17 20 20 21 21 21 28 31 30 29 30 28 29 28 28 27 25 21 19 14 11 8 3 2 2 -1 -1
9 10 7 8 8 10 10 12 11 11 12 13 13 14 15 15 14 12 14 15 16 17 17 18 27 30 30 30 29 28 27 28 25 23 20 17 15 10 8 6 -0 2 -2
8 8 5 5 6 6 6 7 6 7 7 9 10 10 10 12 9 8 10 10 11 12 14 15 18 24 31 31 30 30 28 26 24 22 19 17 14 10 9 10 4 0 2

GFSGL_sfc_dewp_051.txt.gz
Dewpoint
47 44 44 43 42 42 40 39 38 40 40 41 37 35 34 34 34 32 32 32 32 32 31 30 29 29 26 25 25 23 22 20 17 17 20 20 20 19 20 22 23 23 24
47 45 43 42 41 40 38 38 42 44 41 36 36 33 34 34 33 33 31 31 31 31 31 27 26 24 24 24 23 20 20 19 19 17 18 19 19 19 20 21 21 22 24
45 43 42 42 41 40 40 43 43 38 37 35 33 32 32 33 33 33 31 31 31 31 30 25 24 25 24 24 22 20 19 18 19 19 19 19 19 19 20 21 22 23 23
43 42 43 43 43 43 43 40 37 35 33 32 32 33 34 34 33 33 31 32 32 30 27 26 25 25 24 21 19 19 18 18 19 19 18 17 18 20 21 20 20 20 18
43 44 45 44 42 40 38 35 34 34 33 33 33 33 34 34 33 32 31 29 29 27 27 26 25 25 26 24 20 19 19 19 19 18 16 15 17 18 19 20 18 17 18
45 45 41 38 36 37 37 36 35 34 33 33 33 34 33 31 33 34 32 28 27 25 25 24 24 27 27 29 29 25 22 19 18 17 16 16 17 18 18 17 17 18 17
39 38 38 37 36 35 33 32 31 32 36 34 32 33 32 32 34 34 34 27 25 25 24 23 24 22 26 24 26 24 22 22 22 18 17 17 17 17 17 19 20 21 22
35 34 34 34 33 33 33 34 38 38 33 31 31 31 31 31 34 34 33 28 24 24 24 25 25 24 23 22 20 20 19 19 18 16 18 18 19 19 20 22 24 23 22
32 33 33 33 33 34 37 38 37 32 31 30 30 29 29 29 33 34 33 28 24 24 24 25 28 24 25 27 22 21 20 19 17 19 20 21 22 22 20 20 19 20 17
32 32 33 34 37 39 37 34 31 31 29 29 28 28 30 29 32 34 33 27 25 25 26 26 29 26 25 26 22 20 19 18 16 16 18 19 19 20 21 21 20 18 18
36 38 41 39 35 33 30 29 29 29 28 28 28 28 28 29 29 33 34 28 27 26 26 26 25 27 27 25 25 22 20 20 19 20 20 19 19 19 19 19 20 20 18
36 34 33 32 31 30 30 29 29 28 27 27 24 27 27 28 30 31 33 33 29 26 26 26 26 27 28 27 25 26 26 24 22 20 18 17 17 17 17 19 21 21 22
31 30 30 30 30 30 29 28 28 27 26 26 27 26 26 27 27 31 33 33 32 29 28 28 28 28 30 27 27 28 25 22 19 13 16 16 16 17 19 20 20 20 21
27 27 27 28 28 28 28 28 28 26 25 27 26 26 26 26 26 26 27 27 31 31 29 29 27 28 25 24 24 25 23 21 20 18 15 14 16 17 16 18 16 18 18
26 27 27 27 27 27 27 27 28 29 28 28 28 27 26 25 25 27 27 26 26 28 27 29 25 25 24 24 23 22 21 20 18 15 14 14 15 16 15 17 18 17 13
28 28 27 27 27 27 27 27 30 30 31 31 31 29 29 29 30 31 32 31 32 30 27 25 23 24 24 22 21 22 19 18 20 17 15 15 15 14 14 16 17 13 13
27 28 28 27 27 27 28 28 27 28 30 31 31 31 32 32 32 34 34 33 32 31 28 24 24 23 22 21 21 20 19 18 19 17 16 14 14 13 12 13 12 13 13
24 25 24 24 25 25 25 25 25 24 23 23 25 29 30 31 31 33 33 33 30 30 29 25 21 22 22 22 21 20 20 20 16 15 13 15 10 9 9 11 12 5 9
20 19 20 20 21 21 22 22 22 22 22 22 22 23 26 30 31 33 33 30 28 28 27 27 25 25 23 23 22 21 20 18 11 9 14 13 8 9 6 8 7 7 6
18 19 18 20 21 20 19 20 21 22 23 23 23 23 24 25 26 25 20 20 25 28 29 26 27 26 26 24 23 21 19 16 13 13 13 13 9 6 6 3 -1 2 9
18 18 17 18 18 18 18 18 20 20 18 18 20 24 26 27 27 25 27 28 27 27 29 27 26 26 27 26 24 22 21 19 18 16 17 14 9 5 6 4 1 6 9
15 16 14 13 15 13 14 16 17 16 15 15 16 17 18 19 20 23 24 23 23 26 29 29 28 27 27 26 25 24 23 22 21 19 17 16 13 9 5 2 1 -0 4
12 11 9 10 10 9 10 10 12 10 11 12 13 14 15 15 14 13 14 15 15 16 18 19 26 29 28 27 27 27 25 23 23 22 19 17 14 10 2 1 2 -1 -0
8 6 6 5 5 6 5 6 7 5 6 6 8 10 10 12 11 10 10 9 9 11 14 16 17 18 27 28 28 28 28 27 26 24 22 18 15 11 8 2 2 -2 -3
1 -2 -4 0 -0 1 0 3 2 2 2 3 4 6 8 8 9 7 8 7 6 7 9 13 14 15 16 17 28 28 28 28 27 25 23 19 17 14 12 7 3 3 -2
2 -0 -2 -4 -4 -3 -3 -1 -3 -1 -1 0 2 3 4 5 6 5 5 4 3 5 7 9 11 13 14 18 21 29 28 27 27 24 23 20 17 15 12 10 7 5 7

GFSGL_sfc_dewp_054.txt.gz
Dewpoint
55 54 51 48 46 44 43 42 42 41 41 41 42 41 37 37 36 35 34 33 33 32 33 32 31 30 28 27 26 25 23 22 20 19 20 20 20 20 20 21 23 23 24
52 49 47 45 46 46 43 43 42 43 43 44 40 36 35 36 35 34 33 31 32 32 32 31 30 27 26 25 25 23 21 21 19 17 18 19 20 20 20 20 20 20 23
49 48 47 46 45 43 42 42 44 44 42 38 37 36 34 35 35 34 34 33 32 31 31 31 27 25 24 24 24 22 21 19 20 19 18 20 19 19 18 21 22 22 22
48 47 47 45 44 41 42 44 43 39 38 36 35 35 35 34 34 34 33 32 31 31 31 29 26 25 24 24 22 22 19 18 18 19 19 18 17 17 20 20 18 18 18
46 46 46 45 43 43 43 39 39 38 35 34 34 35 35 34 33 33 32 31 31 30 29 27 26 27 28 27 20 20 19 18 19 19 17 17 15 15 15 19 17 18 19
45 45 43 42 41 38 37 38 37 35 33 33 36 35 34 32 33 35 33 30 29 27 27 26 25 27 28 31 32 31 22 20 19 18 17 16 14 16 19 18 18 17 15
41 40 39 38 37 36 34 33 32 35 39 38 38 34 32 32 34 35 34 31 28 27 26 25 23 23 27 25 26 30 28 26 23 21 19 17 16 17 18 18 19 20 19
35 35 34 33 33 34 36 38 39 39 39 37 33 31 31 30 33 34 34 31 28 27 26 25 24 24 25 25 23 21 20 20 20 19 19 17 18 19 20 20 22 21 20
31 32 33 35 36 37 38 39 40 37 33 31 30 29 29 29 32 33 33 30 28 26 25 25 25 25 29 29 25 22 20 19 21 23 22 22 23 23 22 21 18 18 16
33 34 38 40 40 40 39 36 34 31 30 29 28 28 29 29 31 33 33 29 28 28 27 25 28 28 29 28 25 23 20 20 20 16 16 18 21 20 22 20 20 18 16
39 41 41 38 35 34 31 29 29 29 28 28 28 28 28 28 29 32 33 31 30 29 27 27 27 29 30 29 27 23 21 21 21 19 17 20 20 20 19 19 19 20 18
34 33 32 31 30 30 29 29 29 28 27 27 25 27 28 28 29 31 32 33 31 29 27 27 27 29 30 30 29 27 26 24 23 22 21 20 20 19 18 18 20 21 21
29 28 28 28 28 28 28 28 28 27 26 26 27 27 28 29 27 30 31 32 32 30 29 29 29 29 30 30 31 29 26 25 24 22 21 20 19 19 18 20 20 20 20
27 27 27 27 28 28 27 27 27 25 26 27 27 27 27 27 28 27 27 27 30 31 29 31 29 28 27 29 28 29 28 26 24 22 20 19 18 17 18 19 18 18 18
28 28 27 27 27 26 27 27 27 27 27 27 28 28 29 28 28 30 29 28 28 28 28 28 28 27 26 25 25 25 26 24 22 21 19 18 16 16 17 18 18 18 16
25 26 26 25 25 25 25 24 26 27 27 28 28 27 27 28 30 31 32 32 33 32 28 27 27 26 24 24 24 24 24 23 23 21 18 19 17 16 16 16 17 16 15
23 22 22 21 21 22 22 21 20 21 23 24 24 26 26 26 27 28 29 30 32 33 29 27 27 26 24 24 25 23 22 22 23 20 20 18 17 16 15 15 15 15 14
19 20 19 19 20 20 19 19 19 18 19 21 21 21 22 23 26 27 28 30 29 31 30 28 28 26 26 24 24 24 23 23 20 19 17 16 14 15 14 14 15 11 13
18 18 19 18 18 20 19 18 18 19 20 17 17 17 17 20 21 26 27 27 28 27 27 26 28 27 25 25 25 24 23 22 20 16 16 14 12 13 13 13 13 9 9
16 18 16 17 16 16 15 15 15 17 15 14 14 14 15 15 14 15 19 25 24 23 26 26 28 28 28 26 25 24 23 21 19 16 15 14 13 13 13 12 9 10 13
15 15 12 13 13 13 12 13 12 12 10 11 11 12 12 14 13 13 13 14 15 16 17 19 26 27 27 27 25 24 23 22 21 19 18 15 14 14 13 12 10 11 12
12 9 9 9 9 8 8 9 10 7 7 6 6 8 8 9 11 10 10 11 11 12 14 15 16 18 26 27 27 25 24 23 22 20 18 16 15 16 14 10 9 9 11
9 4 4 6 4 3 2 3 5 2 3 2 3 5 6 6 7 8 7 9 9 9 10 11 12 14 16 17 25 27 25 24 24 23 20 18 17 16 12 11 10 8 8
4 -2 3 -0 -3 -1 -8 -7 -4 -3 -1 -1 -1 1 2 3 4 5 5 6 7 7 7 7 8 10 12 14 16 20 28 28 27 26 24 21 18 16 13 11 10 8 7
-6 -9 -9 -8 -10 -12 -14 -11 -12 -11 -6 -5 -3 -2 0 0 1 2 2 4 4 4 5 6 6 6 9 10 13 18 18 27 28 27 25 22 19 16 15 13 10 9 6
-1 -5 -9 -12 -15 -16 -18 -16 -14 -16 -11 -8 -7 -5 -4 -2 0 -0 -0 1 1 2 3 4 3 4 6 9 13 15 16 21 28 26 24 22 19 17 15 14 11 10 9

GFSGL_sfc_dewp_057.txt.gz
Dewpoint
57 57 57 57 56 53 50 47 44 43 43 40 42 44 44 40 38 38 37 36 36 35 35 35 35 34 32 32 31 29 27 25 24 23 20 21 23 22 21 21 20 18 19
57 57 57 56 53 51 48 45 44 42 43 43 44 43 39 39 38 37 36 34 35 34 34 34 34 31 33 32 29 28 25 26 24 20 20 20 21 23 22 20 15 14 19
55 55 53 51 50 48 46 45 45 45 44 44 41 40 39 38 38 38 36 35 35 34 34 34 33 34 32 30 28 26 26 26 23 21 19 20 21 21 19 17 15 18 15
51 50 49 48 47 46 46 45 45 44 42 40 40 39 40 39 36 35 34 35 35 34 35 34 34 33 31 29 27 26 26 24 22 21 20 19 19 19 18 13 13 15 14
48 47 47 46 45 44 45 43 41 41 40 40 40 39 37 36 36 36 34 35 35 34 35 34 34 34 32 30 25 26 25 23 21 22 19 19 18 17 15 13 14 14 16
47 46 44 43 43 41 40 40 41 40 38 37 37 37 38 36 35 35 35 35 34 33 32 33 32 31 31 32 33 32 29 26 27 22 20 19 18 19 16 14 15 15 14
43 42 40 39 39 39 37 36 36 38 40 40 40 39 39 40 35 35 35 34 33 33 32 31 29 26 29 27 29 30 30 31 26 25 24 22 23 19 13 15 15 16 16
36 35 35 35 35 36 39 41 41 41 41 41 40 39 36 33 34 34 34 33 33 33 32 32 31 30 29 28 26 27 27 25 25 23 23 22 21 16 17 19 21 21 18
33 35 37 39 39 40 40 40 41 41 39 36 34 33 33 33 33 33 32 32 32 32 31 31 30 30 30 30 27 29 26 24 24 25 24 25 24 23 24 22 21 19 19
38 39 40 41 41 40 39 36 35 34 32 31 30 32 32 32 32 33 32 33 34 32 32 31 31 30 30 30 31 32 29 25 22 21 21 20 21 20 23 21 20 20 18
41 38 35 34 33 32 32 32 31 30 31 32 31 32 31 31 31 32 33 32 34 33 32 31 31 30 30 30 31 32 31 27 25 22 21 19 17 19 20 20 19 20 19
32 31 30 30 28 28 30 30 29 30 30 31 34 32 32 32 31 32 32 32 32 34 32 32 32 31 31 31 31 31 29 28 28 27 25 23 23 23 21 20 20 21 20
28 29 29 29 28 28 28 28 27 27 27 28 27 28 27 30 29 31 31 31 30 32 34 34 32 31 31 30 31 30 30 30 30 26 25 23 23 23 22 22 21 21 20
28 26 25 23 22 21 19 20 20 23 24 23 24 24 25 25 26 27 30 31 30 31 31 33 33 32 32 32 31 31 32 32 30 28 26 24 24 24 23 22 22 21 19
23 20 18 19 19 17 18 20 20 22 24 24 24 24 27 27 26 26 27 28 29 28 31 32 32 32 30 29 30 30 30 31 29 29 28 26 24 23 23 23 21 20 19
15 16 19 19 20 18 17 17 20 22 22 23 23 23 24 23 22 23 23 25 27 28 29 29 31 32 30 29 29 28 28 28 28 27 28 26 25 24 23 22 21 21 18
15 16 17 18 18 18 18 17 17 18 19 21 20 20 19 19 20 22 22 23 28 28 28 29 30 32 30 28 28 27 26 28 29 28 26 26 26 23 23 22 22 20 18
17 19 17 18 18 18 17 17 18 17 18 18 16 16 16 17 18 19 19 20 21 25 27 28 30 32 31 30 28 28 27 27 27 27 27 27 26 24 24 21 21 20 18
15 15 16 18 17 17 16 16 16 16 15 14 14 13 14 15 16 16 16 16 16 16 18 18 26 30 30 29 29 30 29 30 29 28 27 26 26 24 24 22 21 18 17
14 16 13 14 14 13 13 13 12 13 11 12 11 11 11 11 13 14 14 15 14 13 15 15 17 20 24 30 32 31 30 28 28 26 27 27 26 24 24 23 22 21 17
12 11 11 10 10 10 11 10 10 10 9 9 9 10 7 9 10 11 11 11 12 11 12 12 14 16 19 21 26 30 29 29 27 26 26 26 25 23 23 24 23 20 17
10 8 8 8 8 8 7 7 8 7 6 6 7 7 5 9 9 8 9 9 10 11 11 11 11 13 15 17 17 20 27 28 27 27 27 25 24 23 23 23 22 21 19
7 6 6 5 5 4 5 4 5 5 4 5 5 4 5 7 6 6 8 8 8 8 9 9 10 10 12 13 16 17 19 23 28 29 26 26 24 24 24 22 21 19 19
5 5 3 4 4 3 3 2 2 0 0 2 3 3 3 4 5 4 6 6 5 7 7 8 8 9 10 10 12 15 18 19 21 28 28 27 25 23 23 22 21 19 19
7 5 4 3 2 1 0 -0 -0 -0 0 0 1 1 1 2 1 3 4 3 3 3 3 5 7 8 8 7 8 12 14 13 15 19 29 28 26 25 23 22 21 19 17
6 3 3 3 2 0 -1 -2 -3 -2 -3 -2 -1 -1 -1 -1 -0 1 1 1 1 0 1 3 5 5 7 8 8 10 9 10 15 17 25 28 26 24 23 22 20 19 16

GFSGL_sfc_dewp_060.txt.gz
Dewpoint
57 58 58 58 58 58 57 55 53 52 49 47 43 43 44 45 42 41 39 39 38 37 36 35 35 35 33 31 32 30 29 27 24 24 24 25 26 26 25 25 24 23 19
57 57 57 58 57 57 56 53 51 48 45 44 44 45 44 42 40 40 39 39 38 36 35 35 34 30 34 34 31 31 29 28 25 24 26 23 24 25 25 25 20 15 16
57 57 57 57 56 53 50 47 45 45 45 45 46 44 41 40 39 40 41 39 36 35 34 34 34 34 33 32 31 29 28 24 25 25 23 23 23 23 23 22 21 19 13
55 54 52 51 49 47 46 46 45 46 45 45 42 41 41 41 41 41 38 37 36 34 35 35 34 33 33 32 30 30 27 26 26 24 22 21 21 22 21 18 17 14 14
50 50 49 48 47 46 46 45 45 45 42 41 41 41 42 41 40 39 37 38 36 34 35 34 35 35 35 34 28 28 28 26 24 23 22 21 21 20 18 18 16 13 16
49 46 45 45 45 44 44 44 44 43 41 40 40 40 40 39 38 37 37 39 36 34 33 33 32 35 35 35 33 32 30 27 26 25 25 26 23 21 19 19 15 13 14
46 44 43 43 43 43 41 39 37 38 38 39 40 40 41 41 38 38 37 34 34 34 33 32 29 26 32 32 32 32 32 32 29 28 28 28 26 21 21 19 16 16 16
41 41 40 40 38 38 39 40 40 41 40 41 42 41 40 36 35 34 34 32 32 31 31 31 31 30 30 31 31 29 29 28 30 28 28 25 23 23 22 19 20 21 20
38 39 39 40 39 39 40 41 42 42 41 39 36 34 34 33 34 34 32 32 30 31 30 30 30 30 30 34 31 31 28 29 30 29 29 29 27 25 24 22 22 21 22
39 39 39 40 40 39 38 37 37 35 32 31 30 30 31 31 32 34 32 33 32 32 32 30 31 31 31 32 34 32 32 28 28 27 25 25 26 25 26 23 22 21 20
39 37 37 35 34 34 32 31 31 30 30 32 32 33 33 33 33 33 33 32 32 33 32 32 32 32 32 32 32 33 34 31 29 28 26 25 23 21 19 21 21 21 21
33 30 29 29 26 26 29 30 29 30 31 30 37 29 29 28 28 28 30 30 30 31 28 30 32 33 34 33 32 31 31 32 34 34 29 26 25 23 21 21 23 23 21
29 29 28 27 26 25 25 25 23 21 22 23 22 25 24 26 25 27 27 26 26 29 29 30 30 31 32 33 33 31 31 34 34 32 30 28 27 25 25 25 24 23 22
27 26 24 20 19 17 14 14 16 21 23 21 22 23 23 22 24 23 23 24 24 26 27 30 29 28 29 31 32 34 33 34 33 32 30 28 29 29 26 25 25 24 23
21 18 17 18 16 14 14 17 19 22 23 22 23 22 25 24 22 21 22 23 26 25 27 30 29 28 27 28 30 32 35 34 33 33 32 32 31 28 27 27 26 23 22
14 15 19 19 19 15 13 14 21 20 19 22 20 21 22 19 19 19 20 20 21 22 28 29 31 32 30 27 29 31 33 31 30 31 31 30 29 28 27 27 25 24 22
13 15 17 18 17 17 17 17 17 20 18 18 16 16 16 17 17 18 18 18 19 20 23 24 25 28 32 29 28 30 32 32 31 29 30 30 29 29 29 28 27 23 22
16 18 17 18 17 19 18 18 18 19 20 19 15 14 14 14 16 16 17 17 17 18 18 19 21 23 24 28 33 32 32 32 32 29 31 32 31 29 29 24 23 24 22
14 14 18 20 19 18 19 18 18 17 16 16 15 13 13 12 14 14 15 17 16 15 16 16 18 18 21 23 26 32 33 32 32 32 31 30 31 29 27 25 23 22 21
14 14 14 16 16 16 16 16 14 15 14 15 14 14 13 11 16 17 17 18 16 14 15 14 15 16 17 20 23 26 29 32 32 31 31 31 31 30 27 25 25 25 21
11 11 12 13 14 13 14 14 13 14 13 13 14 15 8 10 14 14 14 15 14 13 14 13 14 15 16 17 18 20 22 25 31 30 30 30 31 29 27 26 26 24 21
11 10 12 13 12 14 11 11 12 12 11 10 12 12 7 13 13 12 12 13 14 13 12 13 13 14 14 14 15 17 18 21 25 28 30 30 30 29 28 25 25 25 21
11 13 11 10 10 9 12 10 11 12 10 10 10 10 10 11 11 10 11 12 12 11 12 11 11 11 13 15 14 15 16 17 21 21 20 30 29 29 29 26 25 24 22
11 12 9 11 12 10 11 10 10 7 7 9 10 10 10 9 10 9 9 10 10 10 10 9 8 8 10 11 13 14 15 18 17 16 18 21 29 29 29 27 25 24 22
13 13 12 11 11 10 10 9 8 8 8 8 9 9 8 8 7 9 9 8 6 7 7 7 7 8 7 8 9 11 14 13 12 13 16 20 27 30 28 27 27 25 23
11 10 10 10 10 9 8 7 6 6 6 6 6 7 7 6 6 7 6 5 5 4 5 7 7 7 7 8 9 12 11 9 11 12 15 17 21 29 28 28 27 25 22

GFSGL_sfc_dewp_063.txt.gz
Dewpoint
57 59 61 60 60 59 59 58 58 57 55 53 51 45 45 45 46 45 42 41 40 40 39 39 37 37 35 34 33 31 30 29 27 26 25 27 30 31 26 28 28 26 26
57 58 60 59 59 59 58 58 57 54 50 47 45 46 46 45 44 42 40 40 39 39 40 39 37 32 37 35 33 33 31 31 29 28 27 26 30 29 30 29 23 19 23
55 56 58 58 57 54 50 49 46 46 46 46 46 45 45 43 41 41 41 41 42 42 40 38 37 36 37 35 34 33 31 27 30 28 27 28 28 27 26 27 27 28 19
57 55 54 52 50 48 47 46 45 45 45 45 45 42 42 41 41 41 41 42 41 40 40 38 37 36 34 35 33 34 31 31 30 28 27 26 26 26 25 23 25 25 21
52 50 50 49 48 47 47 46 46 45 44 43 42 42 42 41 41 42 41 41 40 39 39 37 37 36 36 35 31 34 33 31 28 26 25 25 23 24 23 26 25 23 22
49 48 48 47 46 46 45 44 44 43 42 41 41 41 41 41 39 39 39 38 39 38 37 35 35 35 36 35 35 35 34 33 32 29 27 26 25 26 28 28 26 21 19
47 46 46 45 45 45 44 43 42 42 41 41 40 40 40 41 39 38 38 39 36 33 33 33 31 27 32 31 33 34 34 33 30 32 31 29 29 28 28 28 24 22 20
45 44 44 43 41 41 40 41 41 40 40 40 40 41 41 40 39 38 35 33 32 32 31 31 32 32 33 32 32 32 33 34 33 30 29 29 29 29 28 25 25 22 21
41 40 41 42 41 40 40 40 41 40 41 41 40 37 34 33 35 34 32 30 29 30 28 29 29 31 31 33 32 33 32 33 32 35 34 33 30 28 25 26 26 24 25
41 41 41 40 40 41 41 41 41 39 34 32 30 30 30 29 34 34 32 32 32 32 31 30 31 31 32 32 34 34 31 31 32 32 34 32 29 28 28 25 24 24 23
40 40 40 39 38 37 35 33 31 29 29 33 32 33 32 31 30 31 30 26 28 28 27 27 28 29 30 31 33 32 34 34 32 33 33 33 32 28 26 26 25 23 24
37 35 33 31 27 27 29 29 28 29 30 30 29 27 28 28 28 29 25 25 25 25 23 26 27 28 29 28 28 29 32 33 35 34 34 34 31 29 28 27 27 27 26
33 31 29 27 25 24 24 24 21 20 23 24 23 25 24 26 24 27 24 23 23 25 25 26 26 27 28 29 29 31 31 32 32 32 33 33 31 29 28 29 28 27 27
29 27 24 23 19 16 13 14 16 23 23 21 22 23 23 23 23 23 20 21 21 22 23 26 25 26 28 28 28 30 32 31 32 32 34 33 32 30 30 31 29 28 27
22 19 19 18 16 14 14 16 20 24 22 22 24 22 24 24 21 19 19 20 22 21 24 26 27 28 28 28 29 28 29 32 32 32 33 34 34 31 31 31 29 27 27
17 17 22 22 21 15 13 18 21 21 21 23 19 20 21 19 18 18 19 19 19 20 21 23 25 26 25 25 27 28 30 29 32 34 34 32 30 30 30 31 29 29 26
18 19 18 20 18 17 18 18 18 22 20 21 17 15 14 15 16 17 17 17 19 17 18 18 22 23 23 23 24 26 29 30 34 34 32 31 31 30 30 29 29 28 26
17 22 18 18 18 20 19 19 19 20 21 21 19 14 12 14 15 16 16 17 17 16 16 16 18 19 20 20 21 23 24 29 34 33 31 33 33 31 30 29 29 28 26
15 16 20 22 21 19 20 20 19 18 18 18 17 17 16 14 14 16 16 17 17 15 14 14 16 16 17 19 21 21 23 25 28 32 32 31 32 31 30 30 29 26 25
13 16 17 17 17 17 17 17 16 16 16 16 16 16 16 13 15 18 18 18 17 15 14 13 13 15 17 18 19 19 20 22 23 26 32 32 32 31 30 30 28 27 22
12 13 14 13 14 15 16 16 14 16 16 15 16 17 10 11 14 16 14 15 14 13 14 13 14 16 16 17 16 17 16 19 21 24 26 30 32 30 31 30 29 26 25
12 11 12 14 13 16 14 13 14 14 14 13 14 14 11 14 14 13 13 14 15 14 15 14 14 13 14 14 16 16 15 16 18 21 21 21 23 30 31 29 29 27 24
13 14 13 12 14 11 15 14 14 15 14 14 13 13 13 14 13 12 12 13 12 14 13 13 13 12 11 14 15 15 14 14 16 19 16 17 19 21 30 29 28 27 25
14 15 12 13 15 12 14 14 14 11 11 12 13 13 12 12 12 11 12 12 11 11 12 12 11 9 10 12 13 13 13 14 15 16 15 15 16 19 23 29 28 27 25
15 15 14 13 14 14 14 13 12 12 12 12 12 11 10 10 9 10 10 10 9 9 9 9 10 10 9 9 10 9 11 13 14 12 13 15 15 16 18 27 29 27 26
13 12 12 13 13 13 12 11 11 10 9 10 9 9 9 8 7 8 8 7 8 7 6 9 8 7 7 9 9 10 11 9 10 10 13 13 14 15 19 26 29 28 26

GFSGL_sfc_dewp_066.txt.gz
Dewpoint
57 58 59 61 61 61 60 59 59 57 57 54 53 50 47 45 45 44 43 41 41 41 41 40 39 40 39 38 38 37 34 33 30 30 30 29 29 30 30 31 32 30 30
58 60 61 61 60 59 58 57 57 55 54 51 48 46 45 45 45 43 41 41 40 40 40 41 41 41 39 38 37 36 34 33 31 29 29 30 29 29 30 29 28 23 26
59 60 61 59 57 53 51 50 49 48 47 46 46 45 45 44 42 41 41 41 41 41 41 41 41 39 38 37 37 35 34 32 32 31 29 30 30 29 28 29 28 28 27
57 54 52 51 50 48 47 48 46 46 46 46 45 44 42 42 41 41 41 42 42 42 42 41 40 38 37 37 35 35 34 33 32 32 30 29 28 28 29 26 25 28 26
52 50 49 49 48 47 46 47 46 46 45 43 43 42 42 41 41 41 42 42 41 40 40 40 39 39 38 37 34 34 33 32 30 29 28 27 26 25 24 25 26 26 27
48 48 47 47 47 46 46 44 44 43 42 42 41 41 41 42 40 40 40 40 39 38 39 39 38 37 37 37 36 35 33 32 31 31 30 28 27 27 28 28 27 26 25
48 47 47 46 46 45 44 43 42 42 42 42 41 41 41 41 39 39 38 39 39 37 35 34 32 29 32 32 32 34 34 34 32 32 32 31 30 28 28 27 27 27 25
46 46 46 45 44 43 43 42 43 42 40 40 40 40 41 40 39 39 37 37 34 33 32 32 31 31 32 32 31 31 32 32 33 32 32 32 33 33 30 28 28 26 25
45 44 42 42 41 41 41 40 41 41 41 41 41 41 40 35 35 34 32 33 32 32 31 31 29 27 30 31 28 27 28 30 33 34 35 35 34 34 32 29 26 26 23
41 41 42 42 41 41 41 41 41 41 40 39 34 34 30 32 32 31 28 29 28 27 27 25 28 28 30 29 27 28 27 27 28 29 29 32 35 34 31 28 27 25 24
42 41 41 41 41 41 41 40 38 34 35 33 32 33 32 31 30 28 27 26 25 24 23 23 24 27 27 27 27 24 24 25 25 26 28 29 34 33 32 27 26 25 24
40 39 38 37 34 33 33 31 30 34 33 31 28 28 30 29 28 26 24 23 22 22 22 22 23 25 26 26 26 27 28 28 28 28 28 27 31 34 33 28 27 26 25
36 34 31 30 29 29 30 28 27 27 27 28 28 29 27 28 27 25 22 21 21 22 22 22 22 23 25 26 28 29 28 27 26 28 28 26 27 33 32 31 32 28 26
32 30 28 26 23 21 17 19 26 27 27 27 27 26 26 25 24 21 20 20 20 21 21 20 21 23 24 23 24 25 26 26 30 29 28 29 30 33 32 32 29 26 26
28 24 21 22 21 19 19 21 25 22 24 25 25 24 22 21 20 19 19 19 19 19 19 20 21 21 20 20 20 21 22 23 24 30 30 29 29 32 32 32 31 29 26
21 23 28 27 25 19 19 19 24 23 24 23 21 22 22 19 17 17 18 18 18 19 19 18 17 17 17 17 18 18 19 20 23 24 30 31 31 30 30 31 30 28 24
22 23 24 25 25 24 24 25 23 22 23 22 20 17 16 15 15 17 17 17 18 20 16 17 14 15 16 16 16 17 17 18 22 23 29 31 31 29 27 28 28 27 26
21 26 24 24 24 25 23 24 24 24 23 24 21 19 17 14 15 16 17 17 17 17 17 15 14 15 15 15 14 15 16 16 17 20 22 28 26 28 27 26 28 27 27
21 22 25 25 23 22 23 23 23 22 22 22 21 20 17 15 15 15 18 18 14 15 15 14 13 13 13 14 14 15 15 15 15 17 20 22 28 25 25 26 27 27 26
16 20 22 21 22 22 21 21 20 20 20 21 20 20 18 14 13 12 16 12 12 14 13 13 13 13 12 13 13 13 13 13 13 15 17 20 20 24 25 25 28 27 25
22 18 19 17 18 18 19 19 18 19 19 19 18 16 10 12 10 13 14 12 14 13 11 13 14 12 12 12 11 11 11 12 12 14 14 16 16 16 19 28 29 28 27
17 16 16 17 16 19 16 15 18 17 16 16 17 16 12 12 15 13 11 12 9 11 12 11 10 11 10 10 9 8 10 9 11 12 11 13 14 14 16 17 28 28 26
18 18 15 14 15 14 16 17 17 17 16 15 14 14 14 13 11 11 10 8 10 8 9 9 8 9 9 7 8 10 9 9 10 10 10 11 11 11 13 16 19 27 26
16 17 13 16 17 14 15 16 14 13 14 13 13 12 12 11 9 8 7 8 8 6 6 8 8 4 5 8 10 9 9 8 8 10 12 9 8 9 12 13 15 24 26
18 17 16 16 16 16 15 14 14 13 13 12 11 11 10 10 9 8 7 7 6 5 8 4 4 7 6 6 6 6 7 11 11 8 8 8 7 8 10 12 14 17 26
15 15 15 15 15 14 13 12 11 11 10 10 10 7 8 8 7 5 7 4 6 5 1 3 3 3 3 5 7 9 7 6 5 6 8 9 9 8 9 12 14 16 25

GFSGL_sfc_dewp_069.txt.gz
Dewpoint
54 55 55 58 59 59 59 59 59 58 56 54 53 52 49 47 46 45 44 44 42 42 42 42 41 41 40 40 40 38 36 35 32 31 31 30 28 28 29 33 31 32 31
56 57 58 59 59 59 59 59 57 56 54 53 51 49 47 46 45 44 42 42 41 41 41 40 39 39 40 40 39 38 35 34 32 30 30 30 29 29 29 29 29 28 28
61 59 59 57 58 58 54 53 53 51 51 49 48 47 45 45 43 42 42 42 41 40 41 40 41 41 40 40 39 36 35 34 33 32 31 31 31 31 30 30 29 30 27
55 53 52 51 51 50 49 49 48 47 47 46 46 45 44 43 42 42 42 41 41 42 42 43 42 41 40 37 36 35 35 34 33 32 32 31 30 30 29 27 25 27 26
51 49 48 48 49 48 47 46 46 46 45 44 44 43 43 42 42 41 41 41 42 42 41 40 40 40 40 38 37 35 34 33 32 32 31 29 27 26 25 27 27 27 27
49 48 47 46 46 45 45 45 44 44 43 43 42 42 41 41 39 40 41 41 40 39 38 38 38 39 36 36 36 34 35 34 33 32 32 31 31 27 28 30 30 28 26
48 47 47 46 45 45 44 43 42 42 42 42 41 41 41 41 39 40 39 39 38 37 36 33 32 31 33 30 30 30 30 32 31 31 30 31 31 31 30 30 30 31 29
46 46 46 45 44 43 42 42 42 41 40 39 40 40 40 40 38 38 37 36 35 32 32 30 29 27 28 29 27 26 26 27 28 29 31 32 32 33 33 33 32 33 32
45 45 44 44 43 42 42 41 40 39 39 39 40 40 37 33 34 33 32 31 28 27 27 26 25 25 29 28 26 24 22 20 22 27 29 30 31 31 31 33 32 30 28
44 43 42 42 42 40 40 39 40 40 40 41 39 34 32 29 31 31 29 27 24 23 23 24 26 26 27 27 24 23 23 23 24 24 25 26 27 27 29 33 33 30 28
42 42 42 41 40 40 41 40 40 38 33 32 31 32 29 29 28 27 25 23 24 24 23 22 22 24 23 24 26 25 26 27 27 27 27 27 26 26 28 32 32 31 29
41 41 40 41 40 40 38 33 33 33 32 29 28 28 28 26 26 25 24 22 22 22 21 22 22 22 24 26 26 27 27 26 27 26 27 27 27 27 27 29 32 31 31
39 39 36 34 32 30 30 29 28 28 26 25 26 26 26 25 23 22 21 20 20 22 22 20 21 22 24 25 23 22 23 23 22 22 22 25 28 28 28 31 33 29 29
32 30 29 25 23 21 25 26 25 24 24 25 26 24 24 22 20 19 20 20 20 20 21 20 20 22 23 21 20 20 20 20 20 20 22 22 25 29 30 31 31 30 29
28 23 23 23 21 21 24 23 20 22 25 23 23 23 19 17 20 19 18 19 18 20 18 19 20 20 18 17 17 17 17 17 17 18 18 21 22 30 30 31 31 30 27
24 24 24 23 23 18 19 21 24 24 24 23 22 22 22 20 17 17 18 18 18 20 18 15 10 9 13 15 15 14 14 14 16 16 17 19 20 27 30 31 31 29 27
23 24 25 24 23 24 23 22 21 24 23 22 21 19 19 18 15 17 17 18 18 18 16 14 7 5 7 14 14 13 12 13 15 14 14 17 20 19 29 29 29 27 26
25 26 25 25 25 24 23 24 24 23 22 23 22 20 18 16 15 16 17 18 18 17 17 13 8 6 9 12 12 12 12 12 12 12 12 14 18 18 16 28 28 26 24
24 24 24 23 23 24 25 25 24 23 23 22 22 22 18 16 14 13 15 16 12 13 14 13 7 9 10 11 4 5 5 10 10 10 10 12 14 15 14 16 26 24 23
23 25 25 25 24 23 23 22 21 20 20 20 20 19 17 14 8 6 8 9 6 11 8 10 10 11 8 7 0 1 7 5 8 8 9 10 11 13 13 13 16 25 25
22 22 23 23 22 21 20 19 19 19 18 18 17 14 12 12 10 9 14 8 7 6 2 5 5 1 2 3 9 8 4 3 7 6 9 8 9 10 12 13 13 14 26
22 21 20 19 19 18 16 16 18 17 17 16 15 15 12 7 9 11 9 2 -2 1 2 2 -0 2 3 8 5 2 3 5 4 7 5 5 7 10 10 9 10 14 18
20 19 17 17 17 15 16 17 15 14 13 12 12 12 12 6 6 9 3 -3 -0 -0 -2 -2 -7 3 1 -1 -1 6 7 5 6 5 4 5 7 7 7 7 9 10 12
18 17 16 16 16 14 13 12 11 12 13 10 6 6 6 6 3 3 0 -3 -5 -7 -10 -8 0 0 2 5 5 4 5 5 7 8 8 4 4 5 7 7 8 11 12
17 15 15 14 13 10 9 10 8 6 6 5 4 4 5 1 4 0 -5 -8 -5 -11 -2 -4 -5 -1 -1 -1 -0 1 3 7 8 6 6 5 4 4 6 7 8 9 12
15 13 13 12 11 8 6 4 4 3 1 3 1 -2 -2 0 -3 -11 -7 -5 -1 -3 -6 -3 -2 -3 -2 1 3 5 4 5 6 7 7 7 5 5 8 8 8 9 9

GFSGL_sfc_dewp_072.txt.gz
Dewpoint
52 52 52 53 54 57 56 57 57 57 57 57 56 54 53 52 50 48 46 46 45 44 43 42 42 42 41 40 41 41 38 36 34 34 32 31 29 29 30 33 35 34 35
58 59 58 57 58 57 58 58 58 57 57 55 55 53 51 50 48 46 45 44 43 42 42 42 41 40 39 40 40 39 37 36 34 33 32 31 30 31 30 30 29 30 30
59 59 58 58 58 58 59 58 55 54 55 53 51 50 48 47 45 45 44 43 42 42 42 40 40 41 41 40 39 39 39 37 36 34 33 32 31 31 31 31 30 30 30
55 56 56 55 55 56 55 54 53 53 50 49 50 48 46 44 44 43 43 42 42 41 41 42 42 42 41 40 39 38 36 34 33 33 33 33 31 32 32 31 30 29 29
52 51 50 50 50 49 49 48 48 48 48 48 45 44 44 43 43 43 42 41 41 42 42 42 41 41 40 39 37 34 33 33 32 31 31 32 31 27 27 29 27 28 27
50 48 48 48 48 47 46 45 45 45 45 44 44 43 42 42 39 40 41 41 41 40 39 38 37 33 33 32 32 31 30 28 26 27 27 28 29 30 29 30 28 30 29
48 48 47 47 46 45 45 44 44 43 43 42 42 42 41 41 39 40 39 40 39 37 33 31 29 26 30 28 28 27 27 28 29 27 26 26 28 29 31 31 31 31 31
48 47 46 46 45 44 44 43 43 42 42 41 41 41 41 40 39 39 37 37 32 30 28 26 25 24 28 26 25 24 23 22 22 21 23 24 25 27 29 29 28 28 31
46 46 45 44 43 43 42 42 41 40 40 40 40 40 38 38 37 36 33 29 27 24 24 24 24 24 25 26 24 23 23 24 25 27 28 29 30 30 29 27 25 25 24
46 45 44 43 43 42 41 40 39 40 40 40 39 35 32 31 33 32 28 25 22 21 22 22 23 23 23 23 24 24 24 24 26 26 25 25 26 27 29 28 27 27 25
45 43 43 42 41 40 40 39 39 38 36 33 31 30 28 28 28 27 25 22 23 23 21 21 22 22 22 25 26 25 24 22 23 23 23 23 24 25 27 27 28 28 28
42 41 40 40 40 40 39 38 36 33 30 30 28 26 26 25 26 25 24 23 21 22 20 21 21 22 24 24 22 21 20 23 21 20 20 20 21 22 22 26 28 28 30
40 40 40 39 38 36 34 33 32 30 28 28 27 24 23 22 22 22 21 21 21 21 22 20 20 22 23 23 19 18 20 19 18 17 17 17 18 20 22 25 29 30 32
35 33 31 26 26 27 26 26 26 25 25 27 26 24 23 21 20 20 19 21 19 20 21 21 21 22 22 20 20 19 19 18 17 16 16 16 18 19 20 23 29 29 30
26 24 23 24 24 23 20 21 24 25 26 25 25 24 21 20 20 19 20 20 20 21 21 20 20 17 16 16 17 15 15 15 14 14 14 13 14 16 18 19 20 29 28
22 23 24 23 23 21 18 22 26 25 25 24 24 24 23 22 19 18 18 17 18 19 20 17 13 10 13 14 13 13 13 12 12 13 12 12 12 14 16 16 19 30 27
23 23 24 25 24 23 24 24 22 24 24 23 22 24 22 18 18 18 17 18 17 17 16 14 8 6 9 13 12 12 11 11 12 11 11 10 11 12 13 14 16 26 27
25 26 25 25 25 25 25 25 25 24 23 24 24 20 19 19 19 18 17 18 18 17 16 14 12 11 12 12 11 10 10 9 7 7 9 7 9 9 11 12 14 14 23
26 25 25 25 25 25 25 25 25 24 23 23 23 21 20 18 15 13 15 16 15 14 13 12 12 12 11 10 3 1 -2 -2 1 2 3 4 6 7 7 10 12 12 13
25 26 25 25 24 23 23 23 22 22 21 21 21 19 18 15 13 11 13 11 11 13 11 11 12 10 3 4 -2 -5 0 -2 1 3 1 4 0 4 6 9 10 10 10
23 23 23 23 22 22 21 20 20 19 19 19 17 15 15 14 13 13 14 10 11 10 7 9 6 -0 -0 -1 5 -3 -0 -5 1 5 5 4 1 3 5 9 9 9 11
21 21 20 20 19 18 17 18 19 17 17 15 15 16 13 11 12 12 12 7 4 8 8 4 1 -1 1 3 1 -9 -1 0 2 2 3 3 4 4 5 4 6 8 10
19 18 18 18 18 16 16 16 14 14 14 12 12 12 11 8 7 8 7 4 6 2 2 1 -7 -2 -1 -4 -5 1 3 2 2 4 3 3 4 3 1 2 5 6 7
17 16 15 16 15 15 13 12 12 12 11 9 6 8 6 4 0 1 -0 -2 -2 -5 -10 -9 -6 -3 -1 -5 -7 -2 2 1 4 4 5 4 3 3 2 3 4 6 7
15 14 12 11 10 9 7 7 5 3 4 4 3 2 4 -0 -1 -7 -7 -10 -10 -11 -8 -8 -8 -6 -5 -5 -4 -2 -1 2 3 5 5 4 3 3 2 2 4 6 8
11 10 10 9 7 7 6 4 3 1 1 -1 -3 -6 -7 -8 -7 -17 -13 -10 -10 -10 -9 -8 -7 -6 -6 -3 -1 2 1 1 1 3 4 4 3 3 3 2 4 7 7

GFSGL_sfc_dewp_075.txt.gz
Dewpoint
50 51 52 52 52 55 55 54 55 56 56 56 56 55 54 52 51 51 50 48 47 46 45 45 44 43 42 42 41 41 40 39 37 37 34 33 31 31 31 32 34 35 37
55 55 54 54 53 54 56 56 57 57 57 57 57 57 54 52 51 50 48 48 46 46 44 43 42 41 41 41 41 40 39 38 36 32 33 32 31 31 31 31 31 31 33
55 54 55 55 55 55 56 57 57 57 57 58 56 54 53 51 49 48 47 46 45 45 43 42 42 41 40 41 41 40 39 39 38 36 35 34 32 32 31 31 31 32 31
55 55 55 55 56 57 57 57 57 58 56 54 54 53 50 48 47 46 46 45 44 43 42 42 41 41 41 41 40 39 38 36 34 31 30 31 30 31 30 30 31 31 30
55 55 55 54 53 53 55 56 54 53 52 51 49 46 46 46 46 45 44 43 42 42 42 42 43 41 38 37 38 31 29 28 27 26 26 27 27 27 27 28 29 30 30
52 53 51 51 50 49 48 48 47 47 47 46 45 44 44 44 42 41 42 42 42 42 41 38 34 33 32 32 31 30 28 25 23 24 24 23 22 24 26 26 28 27 23
51 50 49 49 48 47 47 46 45 46 45 44 43 43 43 42 39 40 39 41 39 38 35 32 27 26 28 26 26 24 23 23 25 24 22 22 22 23 24 25 25 25 24
49 49 49 48 46 45 45 44 43 43 42 42 42 42 42 41 39 38 37 36 32 29 28 26 24 25 26 25 24 22 22 23 23 23 22 22 23 24 25 26 26 26 26
48 48 47 46 45 44 43 42 42 42 42 42 42 41 41 40 37 36 33 30 25 23 24 24 23 23 24 24 23 23 24 24 26 26 26 26 27 28 27 27 26 25 24
47 46 45 45 44 43 42 41 41 42 41 40 36 35 36 36 35 33 29 26 23 22 21 21 23 22 22 23 25 24 23 22 22 23 23 22 23 25 26 27 27 25 25
46 45 44 44 43 42 41 41 40 40 37 32 30 30 29 30 29 28 26 23 23 22 20 20 20 21 23 24 24 23 21 21 22 20 20 20 21 22 22 23 23 25 26
44 43 42 42 41 40 40 39 36 35 32 30 28 26 26 26 26 26 24 22 21 22 19 20 21 21 23 22 21 19 19 21 19 18 17 17 17 17 18 19 21 23 24
41 41 40 40 39 38 37 33 31 31 29 28 26 25 23 22 22 23 23 21 20 20 22 20 20 21 21 21 17 17 19 18 17 15 15 14 15 15 17 19 21 22 23
39 35 32 31 29 28 28 30 29 29 29 27 25 23 21 20 20 20 20 21 19 20 21 21 21 23 21 20 19 17 17 17 15 14 13 14 13 14 14 16 17 17 18
29 28 27 26 24 22 24 25 25 26 28 27 26 24 22 21 20 21 21 21 22 22 21 21 19 16 15 15 15 14 14 13 13 13 13 12 11 11 12 14 15 16 16
26 26 26 23 21 20 20 22 26 26 26 26 25 24 24 23 22 21 18 17 18 18 20 17 14 13 13 13 12 12 11 11 10 10 10 10 9 8 9 10 12 13 14
25 24 24 23 23 23 23 24 23 26 26 26 26 25 24 21 20 18 17 18 17 18 16 14 9 8 11 12 11 10 10 10 11 9 7 8 7 7 7 7 9 11 12
26 27 26 26 26 26 25 25 25 25 24 24 25 22 22 22 23 22 22 22 19 17 17 14 12 13 12 10 9 8 8 8 7 5 4 5 1 6 4 4 6 8 10
27 26 26 25 25 25 25 25 25 24 23 24 24 24 24 23 21 20 20 17 16 15 14 12 13 12 10 8 8 5 0 1 -1 -8 -4 -1 -3 4 2 3 4 7 8
25 25 25 24 23 22 22 21 21 21 21 21 20 19 19 18 14 13 14 12 13 13 12 11 11 10 8 7 3 -0 -2 -8 -6 -5 -5 -8 -5 -4 1 2 3 5 6
22 22 22 21 20 19 19 19 19 19 18 17 16 16 17 15 13 13 13 12 11 11 9 9 8 6 5 4 5 1 -3 -9 -3 -2 2 1 -2 -2 1 3 4 2 5
20 19 19 18 17 16 18 17 16 16 15 15 15 15 13 11 10 10 10 6 5 9 8 6 2 3 3 2 -0 -9 -6 -8 -6 -3 -3 1 2 2 2 2 -0 0 3
17 17 17 16 16 15 14 14 13 13 11 9 9 10 9 6 6 7 5 2 4 2 0 -1 -6 -1 -1 -3 -6 -4 -3 -1 -1 0 -0 -0 1 1 1 0 -0 -0 2
15 14 13 13 12 11 9 8 7 8 7 4 3 5 4 2 -1 -1 -5 -8 -10 -13 -14 -12 -8 -6 -4 -7 -10 -7 -2 -3 1 1 1 1 1 1 1 1 1 -1 1
11 10 9 7 6 3 2 2 -1 -2 -1 -4 -6 -8 -2 -8 -8 -16 -19 -18 -14 -16 -11 -10 -10 -8 -8 -8 -7 -6 -5 -2 -0 1 2 1 -1 -1 -0 -0 -0 -0 1
8 6 4 3 -0 -1 -5 -9 -12 -14 -12 -11 -12 -12 -11 -10 -11 -21 -15 -12 -12 -11 -10 -10 -8 -9 -9 -7 -5 -2 -4 -4 -4 -2 -1 -1 -3 -2 -1 -1 -1 -0 2

GFSGL_sfc_dewp_078.txt.gz
Dewpoint
47 47 50 52 53 54 54 53 53 53 53 54 55 56 55 55 54 54 54 51 51 50 49 49 49 47 45 43 43 42 41 40 38 39 36 36 35 35 34 34 34 35 36
51 51 52 52 53 53 54 53 54 54 54 55 56 56 55 55 53 53 51 50 49 48 48 47 46 44 43 42 42 41 40 40 38 36 35 35 33 34 34 33 33 32 33
51 52 52 53 52 52 53 53 54 54 55 55 56 56 56 53 52 52 51 49 49 48 47 46 45 43 42 41 41 40 40 40 38 37 36 35 34 33 33 33 33 34 33
51 52 52 54 54 54 53 54 54 55 56 56 56 55 53 51 51 49 49 47 47 47 47 46 44 42 41 41 41 40 40 38 35 34 33 32 31 32 31 30 27 29 29
53 53 52 53 54 54 54 54 54 54 55 55 52 50 49 48 47 47 47 45 44 45 45 44 43 41 39 39 40 33 31 30 28 27 26 27 25 26 24 27 25 26 28
53 53 53 53 54 54 52 52 52 51 50 50 49 48 46 45 41 42 44 44 45 43 40 36 35 34 32 32 31 30 28 25 23 23 23 20 19 22 25 25 25 24 21
52 53 53 51 50 49 49 48 47 46 46 45 45 44 43 43 41 41 41 43 42 38 34 31 29 29 29 27 26 24 23 23 25 23 20 21 22 23 24 24 24 24 23
51 50 50 49 48 47 47 46 44 44 43 43 43 43 42 40 38 38 37 35 33 31 30 28 27 26 26 24 21 20 23 23 24 24 24 24 25 25 26 25 25 26 25
49 49 49 48 47 46 44 43 43 42 42 42 42 42 40 38 36 34 32 29 27 25 24 24 23 23 24 24 23 24 23 23 23 23 23 23 23 24 25 26 24 24 22
48 47 47 47 46 44 42 42 43 42 41 38 37 38 37 36 34 33 29 26 24 22 20 21 23 22 23 25 26 23 21 20 20 19 18 19 21 23 24 25 25 23 22
46 46 45 44 43 42 42 42 41 37 34 32 30 30 30 31 31 31 28 26 24 22 18 18 20 22 24 25 23 21 20 19 17 16 16 16 17 17 16 18 19 20 20
45 43 42 42 42 41 40 38 36 34 31 29 28 27 27 27 27 26 25 24 23 22 20 19 21 22 24 22 20 19 19 18 18 16 15 15 15 14 14 15 17 20 21
42 41 40 39 39 38 36 35 33 32 30 29 27 25 24 23 24 24 22 21 21 22 22 22 21 22 22 20 18 18 18 17 16 15 14 13 13 13 12 15 15 17 19
38 36 35 34 32 32 32 32 32 31 29 28 26 24 22 20 20 21 21 22 22 22 22 22 21 22 20 19 18 17 16 15 14 13 12 12 12 12 11 11 13 14 15
34 33 31 30 28 26 26 27 28 29 30 28 26 24 23 22 22 23 22 22 22 22 22 21 19 17 15 15 15 13 14 13 12 12 11 10 9 9 9 9 10 11 12
28 26 26 25 24 23 23 25 29 30 30 30 29 26 26 25 23 21 19 19 19 21 20 18 15 14 14 13 13 12 12 11 10 10 9 7 7 7 7 8 8 8 9
26 26 27 27 27 26 26 25 23 27 27 25 25 25 24 22 20 21 23 23 21 18 17 16 13 12 12 13 13 12 11 10 10 9 8 7 6 7 6 6 5 5 6
27 27 26 26 26 27 26 26 25 24 23 24 27 26 26 25 24 24 23 22 20 19 18 15 13 13 13 13 12 10 7 8 7 6 5 5 4 4 4 3 3 3 4
26 26 25 25 25 24 24 24 23 23 23 23 23 23 22 22 21 21 20 18 17 16 16 15 15 13 12 10 9 8 6 4 5 2 -0 -0 -1 2 2 2 2 2 2
24 24 23 22 21 21 21 20 20 20 19 19 17 18 18 16 14 13 13 12 13 13 12 12 12 11 9 7 6 3 3 3 2 1 0 -3 -2 -1 0 0 1 1 2
21 20 20 19 18 18 18 18 18 17 16 15 14 15 15 13 12 11 11 9 8 8 8 7 7 7 6 5 5 4 0 -3 -1 -1 -1 1 -3 -2 0 1 2 2 1
19 18 17 16 17 16 15 15 14 13 13 12 11 10 7 4 4 4 5 2 3 6 5 3 -0 1 2 1 -0 -4 -6 -6 -5 -3 -2 -2 -1 1 1 1 1 0 0
16 15 15 15 14 11 10 10 8 7 4 2 3 3 3 -4 -5 -2 -6 -12 -7 -10 -9 -7 -11 -6 -4 -5 -6 -5 -6 -4 -2 -2 -2 -2 -1 -1 -0 0 0 -0 -0
12 12 10 8 7 6 3 -1 -1 1 1 -4 -9 -6 -5 -8 -15 -17 -19 -20 -16 -15 -16 -15 -10 -8 -6 -7 -9 -7 -4 -4 -2 -1 -1 -1 -2 -1 -0 -0 -0 -0 -0
8 6 4 2 0 -4 -7 -8 -10 -13 -12 -14 -14 -13 -8 -16 -12 -19 -21 -17 -14 -17 -11 -11 -11 -9 -9 -9 -9 -8 -7 -4 -3 -2 -1 -2 -3 -3 -3 -2 -2 -1 -1
4 2 -0 -2 -6 -9 -12 -15 -19 -18 -18 -18 -19 -20 -20 -17 -13 -22 -16 -14 -13 -11 -12 -10 -10 -11 -11 -9 -8 -4 -5 -6 -7 -5 -4 -4 -5 -4 -3 -3 -2 -1 -1

GFSGL_sfc_dewp_081.txt.gz
Dewpoint
52 53 54 54 54 55 55 55 55 56 55 55 55 56 56 57 58 58 57 56 55 55 53 52 52 52 50 48 48 46 46 43 43 41 40 39 40 40 39 39 38 38 38
53 53 53 54 54 54 53 54 56 55 55 55 55 55 55 56 56 55 56 55 53 52 52 51 51 48 46 45 45 43 43 43 41 40 39 37 37 38 38 38 35 33 35
52 52 52 52 52 53 52 54 55 55 55 55 55 55 55 56 56 55 55 54 53 52 52 50 49 46 44 44 43 43 42 41 40 39 38 38 36 37 36 34 34 33 29
50 51 52 52 52 52 52 54 55 55 55 55 56 56 56 56 56 55 54 53 52 51 49 49 47 46 44 43 42 42 42 40 39 38 37 35 34 34 32 29 25 23 21
51 51 51 53 53 52 53 55 56 56 56 56 56 57 57 56 54 52 52 50 49 46 45 45 44 43 42 42 42 40 40 35 33 32 30 30 29 28 24 21 20 21 23
50 51 52 52 52 54 54 56 56 56 56 56 56 55 52 50 45 44 47 47 45 44 40 38 37 36 35 34 33 33 33 30 29 28 27 25 22 19 21 22 22 20 16
51 51 52 52 52 54 55 54 55 55 52 50 48 48 46 45 40 41 41 45 43 39 36 34 32 31 31 28 27 26 25 25 26 22 20 19 20 22 24 22 22 22 21
52 52 53 54 54 51 51 51 48 47 46 45 44 44 43 41 39 38 37 37 35 33 33 32 30 29 28 25 21 21 22 22 23 22 24 24 25 25 25 24 25 24 23
52 52 52 52 50 49 48 45 44 44 43 43 43 42 39 37 36 35 33 31 29 27 27 27 25 25 28 24 20 21 21 22 23 22 22 21 21 22 24 24 24 22 23
50 50 51 50 49 47 44 43 43 42 39 38 37 37 36 34 34 33 30 28 26 24 22 23 24 22 25 26 24 22 19 19 19 16 16 15 18 19 21 21 20 20 18
48 47 46 45 44 43 43 42 38 36 34 32 31 31 32 32 32 31 29 26 25 22 18 18 22 25 26 25 22 21 20 18 16 15 14 14 15 15 14 14 14 16 18
45 43 43 42 42 41 39 37 35 33 31 30 29 28 28 28 28 28 27 26 24 22 18 18 22 25 25 22 20 21 18 18 19 17 16 14 14 13 13 11 13 14 16
42 40 40 39 39 38 36 35 33 33 31 30 28 26 25 25 24 24 23 24 24 23 23 22 23 24 22 20 19 18 17 19 18 17 15 13 12 11 11 13 13 13 14
39 38 37 35 34 33 34 34 33 32 31 29 27 24 22 20 21 23 26 27 23 22 22 22 23 22 20 19 19 18 18 18 16 15 14 13 12 12 12 12 12 12 12
36 34 32 31 29 28 29 29 29 30 31 28 26 25 26 26 25 26 25 24 24 23 23 22 20 19 17 17 17 15 15 15 14 14 14 13 12 10 11 11 10 11 11
30 29 29 28 27 27 26 26 31 30 30 30 29 28 28 27 25 22 21 21 22 20 20 20 20 19 17 15 16 15 15 14 13 13 13 11 9 9 9 9 9 10 9
28 27 27 27 27 27 26 25 24 27 27 27 27 26 24 22 23 24 24 23 22 20 20 19 19 19 17 14 14 13 13 13 12 11 10 10 9 8 8 8 8 8 8
28 29 28 27 27 27 27 27 26 26 25 24 25 24 24 23 22 21 20 19 18 18 17 16 16 16 15 13 13 12 10 10 9 8 9 8 8 7 7 6 7 7 7
26 25 25 25 26 26 26 25 25 24 23 22 21 20 21 20 19 18 17 17 16 15 14 13 14 13 12 11 12 11 11 10 9 8 7 6 7 6 6 5 5 4 4
23 24 24 24 24 23 22 21 21 20 19 18 17 17 17 16 17 16 16 15 14 12 12 10 10 10 10 9 10 9 9 8 7 6 6 6 7 6 5 5 5 6 4
22 21 21 20 19 19 19 18 18 18 16 15 14 14 12 13 13 12 11 11 10 9 8 7 7 7 6 6 5 5 4 5 3 3 3 4 5 5 4 5 6 5 4
20 19 17 17 16 16 15 15 15 14 13 12 12 9 8 11 10 8 7 6 7 6 6 5 4 3 3 2 2 3 2 2 2 2 3 2 2 4 4 4 4 5 5
17 16 14 12 12 11 12 11 11 11 9 9 8 8 7 7 6 5 4 4 3 3 2 1 1 -0 0 1 1 1 -0 -0 1 2 1 2 2 3 4 4 4 4 4
12 11 9 9 9 8 8 7 7 5 6 6 6 5 4 3 3 1 1 1 -0 0 -0 -1 -2 -3 -3 -2 -1 -0 -1 0 1 1 1 1 1 1 3 3 3 4 4
9 7 6 6 4 4 3 3 2 3 2 2 2 2 0 0 -1 -1 -1 -2 -3 -3 -4 -4 -3 -4 -5 -6 -6 -5 -4 -3 -2 -1 -0 -0 -0 -0 0 1 2 2 3
4 4 3 3 2 1 1 0 -0 -0 -1 -2 -2 -2 -3 -4 -3 -3 -4 -5 -6 -7 -6 -5 -6 -7 -7 -6 -5 -4 -5 -5 -4 -4 -3 -2 -1 -0 1 2 2 3 3

GFSGL_sfc_dewp_084.txt.gz
Dewpoint
54 56 56 56 55 56 56 56 56 58 56 56 56 55 55 54 55 56 58 58 58 58 59 57 57 57 54 53 53 51 50 51 49 48 47 43 44 42 40 41 42 41 40
55 55 56 56 56 56 57 57 58 57 57 55 55 54 54 53 54 55 56 57 57 57 56 56 55 54 53 52 51 49 48 49 47 44 43 41 42 42 42 41 38 36 37
54 55 56 56 56 57 57 57 57 56 55 54 54 54 53 54 53 55 55 56 56 56 56 55 54 52 51 50 50 48 47 45 43 42 40 41 40 40 39 40 38 39 35
53 53 55 56 56 56 56 56 55 54 53 53 54 54 54 53 52 53 55 56 57 56 56 54 53 50 49 47 45 46 44 42 41 41 40 39 38 38 37 35 35 34 29
52 52 53 54 54 54 54 55 54 54 53 53 54 54 55 55 55 56 56 56 56 55 52 50 48 47 45 44 45 44 42 40 39 36 34 33 34 34 33 32 27 25 23
52 52 52 52 52 53 53 53 53 54 54 55 55 56 56 56 49 45 52 54 51 47 42 40 39 39 37 36 35 35 37 36 33 33 33 33 33 31 28 25 22 20 18
52 52 51 52 51 52 52 52 53 55 56 56 57 57 56 52 41 41 42 47 44 40 37 36 34 32 31 29 29 28 28 28 29 31 33 30 26 25 24 23 22 22 21
51 51 51 52 52 51 51 51 55 55 55 52 48 46 45 41 39 38 37 37 36 35 34 33 32 30 30 28 25 24 23 23 23 21 23 22 24 24 24 22 24 24 24
51 51 51 52 52 53 54 54 52 48 46 44 44 42 39 37 36 35 34 32 31 30 30 30 30 30 30 26 23 23 21 23 24 23 22 20 20 21 22 21 22 22 24
52 52 53 54 53 53 49 46 44 43 40 38 37 37 35 35 34 34 32 29 28 28 28 27 27 26 26 26 24 22 19 20 20 18 19 18 20 20 22 20 18 20 18
53 52 52 51 48 46 43 42 39 36 35 33 32 32 33 33 33 32 31 28 26 24 21 21 24 27 26 24 24 22 21 20 19 16 15 14 14 16 16 15 15 15 17
47 45 44 44 43 41 39 37 35 34 32 31 29 28 28 29 29 29 28 27 25 22 18 21 24 26 24 22 22 22 20 20 23 21 19 17 15 15 15 15 14 14 15
43 42 40 40 39 38 36 35 33 33 31 30 28 27 26 25 26 26 25 25 26 25 24 24 25 25 22 22 21 18 19 22 22 21 20 17 15 14 12 14 16 16 15
38 37 36 36 35 35 34 34 33 32 30 29 27 25 24 22 24 27 28 28 28 26 24 24 25 25 23 22 20 20 21 20 18 18 17 15 15 17 17 16 17 16 14
34 33 32 31 31 30 30 31 30 31 31 27 26 26 26 27 28 29 30 29 29 26 26 24 23 22 20 20 20 19 18 18 18 19 18 17 16 16 16 15 14 14 14
31 31 31 29 29 28 27 27 30 30 31 31 31 29 29 27 24 23 23 22 21 20 24 24 24 23 21 18 18 18 18 17 16 15 15 14 14 14 13 13 12 13 12
30 29 29 29 28 27 27 26 24 27 29 28 27 26 25 25 24 24 24 22 20 21 22 21 22 21 19 16 16 15 16 16 15 13 13 13 13 12 12 11 12 11 11
30 30 29 29 29 29 29 28 28 27 25 25 26 24 24 22 21 20 19 19 20 18 17 17 18 17 16 15 14 14 13 14 13 13 12 12 12 11 11 9 9 10 9
27 27 27 28 29 29 29 29 29 26 23 22 21 20 20 19 18 18 18 20 18 16 14 13 15 13 13 11 14 14 14 13 12 12 11 10 11 10 8 7 7 7 7
25 27 27 27 27 27 27 25 24 22 21 20 19 19 19 18 19 18 17 17 16 13 12 9 9 9 11 10 11 11 10 9 9 8 8 9 9 9 7 7 8 8 6
24 24 24 24 23 23 23 22 21 19 18 16 15 15 13 16 15 14 13 13 11 10 10 9 9 10 9 9 7 8 7 8 6 6 6 6 7 6 6 7 8 7 7
22 21 21 20 20 20 19 18 18 17 15 14 14 11 9 14 12 11 10 10 11 9 9 8 8 7 6 6 6 7 6 5 6 5 5 4 5 6 6 6 7 7 7
20 18 16 15 16 15 16 15 15 15 13 13 11 10 10 11 10 8 9 9 8 7 7 6 6 4 5 5 6 5 4 4 4 5 4 4 4 5 6 6 6 6 6
15 15 13 14 14 13 13 12 10 8 9 10 10 9 8 9 9 7 7 6 5 6 5 4 3 2 1 2 4 4 3 4 4 3 4 4 4 4 5 5 5 6 6
13 12 11 11 10 10 10 9 8 8 8 7 8 8 6 6 5 6 5 4 2 2 1 1 2 1 -0 -2 -2 -1 0 -0 0 0 2 3 3 3 3 4 4 5 5
8 8 9 8 8 8 7 7 6 6 6 6 6 6 5 4 3 4 2 1 -1 -2 -1 1 -0 -2 -2 -1 0 1 -1 -2 -1 -2 -0 1 2 3 4 5 5 6 5